Wetterdaten: Dienstag, 05.03.2013
Datum Zeit Temp. Aussen +5cm Feuchte Auss Luftdruck Regen Sonnenschein Regendauer UV Solar Windben
05.03.2013 00:00 5,4 C 3,4 C 69 % 1012,8 hPa 0,0 l/m 0 min 0 min 0,0 UV-I 0 W/m 23,2 km/h (4 Bft)
05.03.2013 00:02 5,4 C 3,4 C 69 % 1012,8 hPa 0,0 l/m 0 min 0 min 0,0 UV-I 0 W/m 23,2 km/h (4 Bft)
05.03.2013 00:06 5,4 C 3,4 C 69 % 1012,8 hPa 0,0 l/m 0 min 0 min 0,0 UV-I 0 W/m 30,9 km/h (5 Bft)
05.03.2013 00:08 5,3 C 3,4 C 69 % 1012,8 hPa 0,0 l/m 0 min 0 min 0,0 UV-I 0 W/m 28,3 km/h (4 Bft)
05.03.2013 00:10 5,3 C 3,4 C 69 % 1012,8 hPa 0,0 l/m 0 min 0 min 0,0 UV-I 0 W/m 28,3 km/h (4 Bft)
05.03.2013 00:12 5,3 C 3,4 C 69 % 1012,8 hPa 0,0 l/m 0 min 0 min 0,0 UV-I 0 W/m 20,6 km/h (4 Bft)
05.03.2013 00:14 5,3 C 3,4 C 69 % 1012,8 hPa 0,0 l/m 0 min 0 min 0,0 UV-I 0 W/m 15,4 km/h (3 Bft)
05.03.2013 00:16 5,3 C 3,4 C 70 % 1012,8 hPa 0,0 l/m 0 min 0 min 0,0 UV-I 0 W/m 20,6 km/h (4 Bft)
05.03.2013 00:18 5,3 C 3,4 C 70 % 1012,8 hPa 0,0 l/m 0 min 0 min 0,0 UV-I 0 W/m 20,6 km/h (4 Bft)
05.03.2013 00:20 5,2 C 3,4 C 70 % 1012,7 hPa 0,0 l/m 0 min 0 min 0,0 UV-I 0 W/m 23,2 km/h (4 Bft)
05.03.2013 00:22 5,2 C 3,4 C 70 % 1012,7 hPa 0,0 l/m 0 min 0 min 0,0 UV-I 0 W/m 23,2 km/h (4 Bft)
05.03.2013 00:24 5,2 C 3,4 C 70 % 1012,7 hPa 0,0 l/m 0 min 0 min 0,0 UV-I 0 W/m 20,6 km/h (4 Bft)
05.03.2013 00:26 5,2 C 3,4 C 70 % 1012,7 hPa 0,0 l/m 0 min 0 min 0,0 UV-I 0 W/m 23,2 km/h (4 Bft)
05.03.2013 00:28 5,2 C 2,9 C 70 % 1012,7 hPa 0,0 l/m 0 min 0 min 0,0 UV-I 0 W/m 18,0 km/h (3 Bft)
05.03.2013 00:30 5,2 C 3,4 C 70 % 1012,7 hPa 0,0 l/m 0 min 0 min 0,0 UV-I 0 W/m 30,9 km/h (5 Bft)
05.03.2013 00:32 5,1 C 3,4 C 70 % 1012,7 hPa 0,0 l/m 0 min 0 min 0,0 UV-I 0 W/m 25,7 km/h (4 Bft)
05.03.2013 00:34 5,1 C 3,4 C 70 % 1012,7 hPa 0,0 l/m 0 min 0 min 0,0 UV-I 0 W/m 23,2 km/h (4 Bft)
05.03.2013 00:36 5,1 C 3,4 C 70 % 1012,6 hPa 0,0 l/m 0 min 0 min 0,0 UV-I 0 W/m 25,7 km/h (4 Bft)
05.03.2013 00:38 5,1 C 3,4 C 70 % 1012,6 hPa 0,0 l/m 0 min 0 min 0,0 UV-I 0 W/m 30,9 km/h (5 Bft)
05.03.2013 00:40 5,1 C 3,4 C 70 % 1012,6 hPa 0,0 l/m 0 min 0 min 0,0 UV-I 0 W/m 28,3 km/h (4 Bft)
05.03.2013 00:42 5,1 C 3,4 C 70 % 1012,5 hPa 0,0 l/m 0 min 0 min 0,0 UV-I 0 W/m 23,2 km/h (4 Bft)
05.03.2013 00:44 5,1 C 3,4 C 70 % 1012,6 hPa 0,0 l/m 0 min 0 min 0,0 UV-I 0 W/m 20,6 km/h (4 Bft)
05.03.2013 00:46 5,1 C 3,4 C 70 % 1012,6 hPa 0,0 l/m 0 min 0 min 0,0 UV-I 0 W/m 23,2 km/h (4 Bft)
05.03.2013 00:48 5,1 C 3,4 C 70 % 1012,6 hPa 0,0 l/m 0 min 0 min 0,0 UV-I 0 W/m 20,6 km/h (4 Bft)
05.03.2013 00:50 5,1 C 2,9 C 70 % 1012,5 hPa 0,0 l/m 0 min 0 min 0,0 UV-I 0 W/m 20,6 km/h (4 Bft)
05.03.2013 00:52 5,1 C 2,9 C 70 % 1012,4 hPa 0,0 l/m 0 min 0 min 0,0 UV-I 0 W/m 25,7 km/h (4 Bft)
05.03.2013 00:54 5,1 C 2,9 C 70 % 1012,5 hPa 0,0 l/m 0 min 0 min 0,0 UV-I 0 W/m 18,0 km/h (3 Bft)
05.03.2013 00:56 5,1 C 2,9 C 71 % 1012,4 hPa 0,0 l/m 0 min 0 min 0,0 UV-I 0 W/m 25,7 km/h (4 Bft)
05.03.2013 00:58 5,0 C 2,9 C 71 % 1012,4 hPa 0,0 l/m 0 min 0 min 0,0 UV-I 0 W/m 23,2 km/h (4 Bft)
05.03.2013 01:00 5,0 C 2,9 C 71 % 1012,4 hPa 0,0 l/m 0 min 0 min 0,0 UV-I 0 W/m 23,2 km/h (4 Bft)
05.03.2013 01:02 5,0 C 2,9 C 71 % 1012,5 hPa 0,0 l/m 0 min 0 min 0,0 UV-I 0 W/m 20,6 km/h (4 Bft)
05.03.2013 01:04 5,0 C 2,9 C 71 % 1012,5 hPa 0,0 l/m 0 min 0 min 0,0 UV-I 0 W/m 23,2 km/h (4 Bft)
05.03.2013 01:06 4,9 C 2,9 C 71 % 1012,5 hPa 0,0 l/m 0 min 0 min 0,0 UV-I 0 W/m 28,3 km/h (4 Bft)
05.03.2013 01:08 4,9 C 2,9 C 71 % 1012,5 hPa 0,0 l/m 0 min 0 min 0,0 UV-I 0 W/m 20,6 km/h (4 Bft)
05.03.2013 01:10 4,9 C 2,9 C 71 % 1012,5 hPa 0,0 l/m 0 min 0 min 0,0 UV-I 0 W/m 30,9 km/h (5 Bft)
05.03.2013 01:12 4,9 C 2,9 C 71 % 1012,5 hPa 0,0 l/m 0 min 0 min 0,0 UV-I 0 W/m 23,2 km/h (4 Bft)
05.03.2013 01:14 4,9 C 2,9 C 71 % 1012,6 hPa 0,0 l/m 0 min 0 min 0,0 UV-I 0 W/m 30,9 km/h (5 Bft)
05.03.2013 01:16 4,9 C 2,9 C 71 % 1012,5 hPa 0,0 l/m 0 min 0 min 0,0 UV-I 0 W/m 18,0 km/h (3 Bft)
05.03.2013 01:18 4,9 C 2,9 C 71 % 1012,5 hPa 0,0 l/m 0 min 0 min 0,0 UV-I 0 W/m 18,0 km/h (3 Bft)
05.03.2013 01:20 4,9 C 2,9 C 71 % 1012,5 hPa 0,0 l/m 0 min 0 min 0,0 UV-I 0 W/m 25,7 km/h (4 Bft)
05.03.2013 01:22 4,8 C 2,9 C 71 % 1012,5 hPa 0,0 l/m 0 min 0 min 0,0 UV-I 0 W/m 18,0 km/h (3 Bft)
05.03.2013 01:24 4,8 C 2,9 C 71 % 1012,5 hPa 0,0 l/m 0 min 0 min 0,0 UV-I 0 W/m 15,4 km/h (3 Bft)
05.03.2013 01:26 4,8 C 2,9 C 71 % 1012,6 hPa 0,0 l/m 0 min 0 min 0,0 UV-I 0 W/m 25,7 km/h (4 Bft)
05.03.2013 01:28 4,8 C 2,9 C 72 % 1012,6 hPa 0,0 l/m 0 min 0 min 0,0 UV-I 0 W/m 23,2 km/h (4 Bft)
05.03.2013 01:30 4,8 C 2,9 C 72 % 1012,7 hPa 0,0 l/m 0 min 0 min 0,0 UV-I 0 W/m 20,6 km/h (4 Bft)
05.03.2013 01:32 4,8 C 2,9 C 72 % 1012,6 hPa 0,0 l/m 0 min 0 min 0,0 UV-I 0 W/m 23,2 km/h (4 Bft)
05.03.2013 01:34 4,7 C 2,9 C 72 % 1012,6 hPa 0,0 l/m 0 min 0 min 0,0 UV-I 0 W/m 25,7 km/h (4 Bft)
05.03.2013 01:36 4,7 C 2,9 C 72 % 1012,6 hPa 0,0 l/m 0 min 0 min 0,0 UV-I 0 W/m 20,6 km/h (4 Bft)
05.03.2013 01:38 4,7 C 2,9 C 72 % 1012,6 hPa 0,0 l/m 0 min 0 min 0,0 UV-I 0 W/m 23,2 km/h (4 Bft)
05.03.2013 01:40 4,7 C 2,9 C 72 % 1012,6 hPa 0,0 l/m 0 min 0 min 0,0 UV-I 0 W/m 18,0 km/h (3 Bft)
05.03.2013 01:42 4,7 C 2,9 C 72 % 1012,7 hPa 0,0 l/m 0 min 0 min 0,0 UV-I 0 W/m 18,0 km/h (3 Bft)
05.03.2013 01:44 4,7 C 2,9 C 72 % 1012,7 hPa 0,0 l/m 0 min 0 min 0,0 UV-I 0 W/m 28,3 km/h (4 Bft)
05.03.2013 01:46 4,6 C 2,9 C 72 % 1012,7 hPa 0,0 l/m 0 min 0 min 0,0 UV-I 0 W/m 20,6 km/h (4 Bft)
05.03.2013 01:48 4,6 C 2,3 C 73 % 1012,6 hPa 0,0 l/m 0 min 0 min 0,0 UV-I 0 W/m 18,0 km/h (3 Bft)
05.03.2013 01:50 4,6 C 2,3 C 73 % 1012,6 hPa 0,0 l/m 0 min 0 min 0,0 UV-I 0 W/m 15,4 km/h (3 Bft)
05.03.2013 01:52 4,6 C 2,3 C 73 % 1012,6 hPa 0,0 l/m 0 min 0 min 0,0 UV-I 0 W/m 20,6 km/h (4 Bft)
05.03.2013 01:54 4,5 C 2,3 C 73 % 1012,6 hPa 0,0 l/m 0 min 0 min 0,0 UV-I 0 W/m 18,0 km/h (3 Bft)
05.03.2013 01:56 4,5 C 2,3 C 73 % 1012,6 hPa 0,0 l/m 0 min 0 min 0,0 UV-I 0 W/m 20,6 km/h (4 Bft)
05.03.2013 01:58 4,5 C 2,3 C 73 % 1012,6 hPa 0,0 l/m 0 min 0 min 0,0 UV-I 0 W/m 20,6 km/h (4 Bft)
05.03.2013 02:00 4,4 C 2,3 C 73 % 1012,6 hPa 0,0 l/m 0 min 0 min 0,0 UV-I 0 W/m 12,9 km/h (3 Bft)
05.03.2013 02:02 4,4 C 2,3 C 73 % 1012,6 hPa 0,0 l/m 0 min 0 min 0,0 UV-I 0 W/m 15,4 km/h (3 Bft)
05.03.2013 02:04 4,4 C 2,3 C 73 % 1012,6 hPa 0,0 l/m 0 min 0 min 0,0 UV-I 0 W/m 23,2 km/h (4 Bft)
05.03.2013 02:06 4,4 C 2,3 C 73 % 1012,5 hPa 0,0 l/m 0 min 0 min 0,0 UV-I 0 W/m 15,4 km/h (3 Bft)
05.03.2013 02:08 4,4 C 2,3 C 73 % 1012,6 hPa 0,0 l/m 0 min 0 min 0,0 UV-I 0 W/m 20,6 km/h (4 Bft)
05.03.2013 02:10 4,3 C 2,3 C 73 % 1012,5 hPa 0,0 l/m 0 min 0 min 0,0 UV-I 0 W/m 12,9 km/h (3 Bft)
05.03.2013 02:12 4,3 C 2,3 C 73 % 1012,5 hPa 0,0 l/m 0 min 0 min 0,0 UV-I 0 W/m 20,6 km/h (4 Bft)
05.03.2013 02:14 4,3 C 2,3 C 73 % 1012,5 hPa 0,0 l/m 0 min 0 min 0,0 UV-I 0 W/m 15,4 km/h (3 Bft)
05.03.2013 02:16 4,3 C 2,3 C 74 % 1012,5 hPa 0,0 l/m 0 min 0 min 0,0 UV-I 0 W/m 15,4 km/h (3 Bft)
05.03.2013 02:18 4,3 C 2,3 C 74 % 1012,4 hPa 0,0 l/m 0 min 0 min 0,0 UV-I 0 W/m 18,0 km/h (3 Bft)
05.03.2013 02:20 4,2 C 2,3 C 74 % 1012,4 hPa 0,0 l/m 0 min 0 min 0,0 UV-I 0 W/m 18,0 km/h (3 Bft)
05.03.2013 02:22 4,2 C 2,3 C 74 % 1012,4 hPa 0,0 l/m 0 min 0 min 0,0 UV-I 0 W/m 15,4 km/h (3 Bft)
05.03.2013 02:24 4,2 C 2,3 C 74 % 1012,4 hPa 0,0 l/m 0 min 0 min 0,0 UV-I 0 W/m 20,6 km/h (4 Bft)
05.03.2013 02:26 4,2 C 2,3 C 74 % 1012,4 hPa 0,0 l/m 0 min 0 min 0,0 UV-I 0 W/m 15,4 km/h (3 Bft)
05.03.2013 02:28 4,1 C 2,3 C 74 % 1012,5 hPa 0,0 l/m 0 min 0 min 0,0 UV-I 0 W/m 23,2 km/h (4 Bft)
05.03.2013 02:30 4,1 C 2,3 C 74 % 1012,5 hPa 0,0 l/m 0 min 0 min 0,0 UV-I 0 W/m 20,6 km/h (4 Bft)
05.03.2013 02:32 4,1 C 2,3 C 74 % 1012,6 hPa 0,0 l/m 0 min 0 min 0,0 UV-I 0 W/m 10,3 km/h (2 Bft)
05.03.2013 02:34 4,1 C 1,8 C 74 % 1012,6 hPa 0,0 l/m 0 min 0 min 0,0 UV-I 0 W/m 7,7 km/h (2 Bft)
05.03.2013 02:36 4,1 C 1,8 C 74 % 1012,6 hPa 0,0 l/m 0 min 0 min 0,0 UV-I 0 W/m 10,3 km/h (2 Bft)
05.03.2013 02:38 4,0 C 1,8 C 74 % 1012,6 hPa 0,0 l/m 0 min 0 min 0,0 UV-I 0 W/m 15,4 km/h (3 Bft)
05.03.2013 02:40 4,0 C 1,8 C 74 % 1012,6 hPa 0,0 l/m 0 min 0 min 0,0 UV-I 0 W/m 7,7 km/h (2 Bft)
05.03.2013 02:42 4,0 C 1,8 C 75 % 1012,6 hPa 0,0 l/m 0 min 0 min 0,0 UV-I 0 W/m 7,7 km/h (2 Bft)
05.03.2013 02:44 3,9 C 1,8 C 74 % 1012,6 hPa 0,0 l/m 0 min 0 min 0,0 UV-I 0 W/m 15,4 km/h (3 Bft)
05.03.2013 02:46 3,9 C 1,8 C 74 % 1012,5 hPa 0,0 l/m 0 min 0 min 0,0 UV-I 0 W/m 10,3 km/h (2 Bft)
05.03.2013 02:48 3,9 C 1,8 C 75 % 1012,5 hPa 0,0 l/m 0 min 0 min 0,0 UV-I 0 W/m 10,3 km/h (2 Bft)
05.03.2013 02:50 3,9 C 1,8 C 75 % 1012,5 hPa 0,0 l/m 0 min 0 min 0,0 UV-I 0 W/m 10,3 km/h (2 Bft)
05.03.2013 02:52 3,8 C 1,8 C 75 % 1012,5 hPa 0,0 l/m 0 min 0 min 0,0 UV-I 0 W/m 5,1 km/h (1 Bft)
05.03.2013 02:54 3,8 C 1,8 C 75 % 1012,5 hPa 0,0 l/m 0 min 0 min 0,0 UV-I 0 W/m 18,0 km/h (3 Bft)
05.03.2013 02:56 3,8 C 1,8 C 75 % 1012,5 hPa 0,0 l/m 0 min 0 min 0,0 UV-I 0 W/m 15,4 km/h (3 Bft)
05.03.2013 02:58 3,8 C 1,8 C 75 % 1012,5 hPa 0,0 l/m 0 min 0 min 0,0 UV-I 0 W/m 15,4 km/h (3 Bft)
05.03.2013 03:00 3,7 C 1,8 C 75 % 1012,4 hPa 0,0 l/m 0 min 0 min 0,0 UV-I 0 W/m 12,9 km/h (3 Bft)
05.03.2013 03:02 3,7 C 1,8 C 75 % 1012,4 hPa 0,0 l/m 0 min 0 min 0,0 UV-I 0 W/m 18,0 km/h (3 Bft)
05.03.2013 03:06 3,7 C 1,8 C 75 % 1012,4 hPa 0,0 l/m 0 min 0 min 0,0 UV-I 0 W/m 12,9 km/h (3 Bft)
05.03.2013 03:08 3,7 C 1,8 C 75 % 1012,4 hPa 0,0 l/m 0 min 0 min 0,0 UV-I 0 W/m 12,9 km/h (3 Bft)
05.03.2013 03:10 3,7 C 1,8 C 75 % 1012,3 hPa 0,0 l/m 0 min 0 min 0,0 UV-I 0 W/m 12,9 km/h (3 Bft)
05.03.2013 03:12 3,7 C 1,8 C 75 % 1012,3 hPa 0,0 l/m 0 min 0 min 0,0 UV-I 0 W/m 18,0 km/h (3 Bft)
05.03.2013 03:14 3,6 C 1,8 C 76 % 1012,3 hPa 0,0 l/m 0 min 0 min 0,0 UV-I 0 W/m 12,9 km/h (3 Bft)
05.03.2013 03:16 3,6 C 1,8 C 76 % 1012,2 hPa 0,0 l/m 0 min 0 min 0,0 UV-I 0 W/m 20,6 km/h (4 Bft)
05.03.2013 03:18 3,6 C 1,8 C 76 % 1012,2 hPa 0,0 l/m 0 min 0 min 0,0 UV-I 0 W/m 18,0 km/h (3 Bft)
05.03.2013 03:20 3,6 C 1,8 C 76 % 1012,1 hPa 0,0 l/m 0 min 0 min 0,0 UV-I 0 W/m 18,0 km/h (3 Bft)
05.03.2013 03:22 3,6 C 1,8 C 76 % 1012,0 hPa 0,0 l/m 0 min 0 min 0,0 UV-I 0 W/m 18,0 km/h (3 Bft)
05.03.2013 03:24 3,6 C 1,8 C 76 % 1012,0 hPa 0,0 l/m 0 min 0 min 0,0 UV-I 0 W/m 12,9 km/h (3 Bft)
05.03.2013 03:26 3,5 C 1,8 C 76 % 1012,0 hPa 0,0 l/m 0 min 0 min 0,0 UV-I 0 W/m 15,4 km/h (3 Bft)
05.03.2013 03:28 3,5 C 1,8 C 80 % 1012,0 hPa 0,0 l/m 0 min 0 min 0,0 UV-I 0 W/m 12,9 km/h (3 Bft)
05.03.2013 03:30 3,5 C 1,8 C 76 % 1012,0 hPa 0,0 l/m 0 min 0 min 0,0 UV-I 0 W/m 23,2 km/h (4 Bft)
05.03.2013 03:32 3,5 C 1,8 C 76 % 1012,0 hPa 0,0 l/m 0 min 0 min 0,0 UV-I 0 W/m 20,6 km/h (4 Bft)
05.03.2013 03:34 3,4 C 1,8 C 76 % 1012,0 hPa 0,0 l/m 0 min 0 min 0,0 UV-I 0 W/m 23,2 km/h (4 Bft)
05.03.2013 03:36 3,4 C 1,8 C 76 % 1011,9 hPa 0,0 l/m 0 min 0 min 0,0 UV-I 0 W/m 20,6 km/h (4 Bft)
05.03.2013 03:38 3,4 C 1,8 C 76 % 1011,9 hPa 0,0 l/m 0 min 0 min 0,0 UV-I 0 W/m 15,4 km/h (3 Bft)
05.03.2013 03:40 3,4 C 1,8 C 76 % 1011,9 hPa 0,0 l/m 0 min 0 min 0,0 UV-I 0 W/m 12,9 km/h (3 Bft)
05.03.2013 03:42 3,4 C 1,8 C 76 % 1011,8 hPa 0,0 l/m 0 min 0 min 0,0 UV-I 0 W/m 23,2 km/h (4 Bft)
05.03.2013 03:44 3,4 C 1,8 C 76 % 1011,8 hPa 0,0 l/m 0 min 0 min 0,0 UV-I 0 W/m 20,6 km/h (4 Bft)
05.03.2013 03:46 3,4 C 1,8 C 76 % 1011,9 hPa 0,0 l/m 0 min 0 min 0,0 UV-I 0 W/m 20,6 km/h (4 Bft)
05.03.2013 03:48 3,5 C 1,8 C 76 % 1011,8 hPa 0,0 l/m 0 min 0 min 0,0 UV-I 0 W/m 25,7 km/h (4 Bft)
05.03.2013 03:50 3,5 C 1,8 C 76 % 1011,8 hPa 0,0 l/m 0 min 0 min 0,0 UV-I 0 W/m 20,6 km/h (4 Bft)
05.03.2013 03:52 3,5 C 1,8 C 76 % 1011,9 hPa 0,0 l/m 0 min 0 min 0,0 UV-I 0 W/m 18,0 km/h (3 Bft)
05.03.2013 03:54 3,6 C 1,8 C 75 % 1011,9 hPa 0,0 l/m 0 min 0 min 0,0 UV-I 0 W/m 25,7 km/h (4 Bft)
05.03.2013 03:56 3,6 C 1,8 C 75 % 1011,8 hPa 0,0 l/m 0 min 0 min 0,0 UV-I 0 W/m 20,6 km/h (4 Bft)
05.03.2013 03:58 3,6 C 1,8 C 75 % 1011,8 hPa 0,0 l/m 0 min 0 min 0,0 UV-I 0 W/m 30,9 km/h (5 Bft)
05.03.2013 04:00 3,6 C 1,8 C 75 % 1011,8 hPa 0,0 l/m 0 min 0 min 0,0 UV-I 0 W/m 20,6 km/h (4 Bft)
05.03.2013 04:02 3,6 C 1,8 C 75 % 1011,8 hPa 0,0 l/m 0 min 0 min 0,0 UV-I 0 W/m 23,2 km/h (4 Bft)
05.03.2013 04:07 3,6 C 1,8 C 75 % 1011,7 hPa 0,0 l/m 0 min 0 min 0,0 UV-I 0 W/m 20,6 km/h (4 Bft)
05.03.2013 04:08 3,6 C 1,8 C 75 % 1011,7 hPa 0,0 l/m 0 min 0 min 0,0 UV-I 0 W/m 18,0 km/h (3 Bft)
05.03.2013 04:10 3,6 C 1,8 C 75 % 1011,7 hPa 0,0 l/m 0 min 0 min 0,0 UV-I 0 W/m 23,2 km/h (4 Bft)
05.03.2013 04:12 3,6 C 1,8 C 75 % 1011,6 hPa 0,0 l/m 0 min 0 min 0,0 UV-I 0 W/m 20,6 km/h (4 Bft)
05.03.2013 04:14 3,6 C 1,8 C 75 % 1011,6 hPa 0,0 l/m 0 min 0 min 0,0 UV-I 0 W/m 25,7 km/h (4 Bft)
05.03.2013 04:16 3,6 C 1,8 C 75 % 1011,5 hPa 0,0 l/m 0 min 0 min 0,0 UV-I 0 W/m 20,6 km/h (4 Bft)
05.03.2013 04:18 3,6 C 1,8 C 75 % 1011,5 hPa 0,0 l/m 0 min 0 min 0,0 UV-I 0 W/m 23,2 km/h (4 Bft)
05.03.2013 04:20 3,6 C 1,8 C 75 % 1011,5 hPa 0,0 l/m 0 min 0 min 0,0 UV-I 0 W/m 20,6 km/h (4 Bft)
05.03.2013 04:22 3,7 C 1,8 C 75 % 1011,6 hPa 0,0 l/m 0 min 0 min 0,0 UV-I 0 W/m 33,5 km/h (5 Bft)
05.03.2013 04:24 3,7 C 2,3 C 74 % 1011,6 hPa 0,0 l/m 0 min 0 min 0,0 UV-I 0 W/m 25,7 km/h (4 Bft)
05.03.2013 04:26 3,7 C 2,3 C 74 % 1011,5 hPa 0,0 l/m 0 min 0 min 0,0 UV-I 0 W/m 18,0 km/h (3 Bft)
05.03.2013 04:28 3,7 C 1,8 C 74 % 1011,5 hPa 0,0 l/m 0 min 0 min 0,0 UV-I 0 W/m 25,7 km/h (4 Bft)
05.03.2013 04:30 3,7 C 1,8 C 74 % 1011,6 hPa 0,0 l/m 0 min 0 min 0,0 UV-I 0 W/m 18,0 km/h (3 Bft)
05.03.2013 04:32 3,7 C 1,8 C 74 % 1011,6 hPa 0,0 l/m 0 min 0 min 0,0 UV-I 0 W/m 15,4 km/h (3 Bft)
05.03.2013 04:34 3,7 C 1,8 C 74 % 1011,6 hPa 0,0 l/m 0 min 0 min 0,0 UV-I 0 W/m 20,6 km/h (4 Bft)
05.03.2013 04:36 3,7 C 1,8 C 74 % 1011,6 hPa 0,0 l/m 0 min 0 min 0,0 UV-I 0 W/m 18,0 km/h (3 Bft)
05.03.2013 04:38 3,7 C 1,8 C 74 % 1011,5 hPa 0,0 l/m 0 min 0 min 0,0 UV-I 0 W/m 23,2 km/h (4 Bft)
05.03.2013 04:40 3,7 C 1,8 C 74 % 1011,6 hPa 0,0 l/m 0 min 0 min 0,0 UV-I 0 W/m 23,2 km/h (4 Bft)
05.03.2013 04:42 3,7 C 1,8 C 74 % 1011,6 hPa 0,0 l/m 0 min 0 min 0,0 UV-I 0 W/m 12,9 km/h (3 Bft)
05.03.2013 04:44 3,7 C 1,8 C 74 % 1011,5 hPa 0,0 l/m 0 min 0 min 0,0 UV-I 0 W/m 23,2 km/h (4 Bft)
05.03.2013 04:46 3,6 C 1,8 C 74 % 1011,6 hPa 0,0 l/m 0 min 0 min 0,0 UV-I 0 W/m 18,0 km/h (3 Bft)
05.03.2013 04:48 3,6 C 1,8 C 74 % 1011,6 hPa 0,0 l/m 0 min 0 min 0,0 UV-I 0 W/m 20,6 km/h (4 Bft)
05.03.2013 04:50 3,6 C 1,8 C 74 % 1011,6 hPa 0,0 l/m 0 min 0 min 0,0 UV-I 0 W/m 20,6 km/h (4 Bft)
05.03.2013 04:52 3,6 C 1,8 C 74 % 1011,6 hPa 0,0 l/m 0 min 0 min 0,0 UV-I 0 W/m 20,6 km/h (4 Bft)
05.03.2013 04:54 3,6 C 1,8 C 74 % 1011,6 hPa 0,0 l/m 0 min 0 min 0,0 UV-I 0 W/m 15,4 km/h (3 Bft)
05.03.2013 04:56 3,6 C 1,8 C 74 % 1011,6 hPa 0,0 l/m 0 min 0 min 0,0 UV-I 0 W/m 23,2 km/h (4 Bft)
05.03.2013 04:58 3,6 C 1,8 C 74 % 1011,6 hPa 0,0 l/m 0 min 0 min 0,0 UV-I 0 W/m 20,6 km/h (4 Bft)
05.03.2013 05:00 3,6 C 1,8 C 74 % 1011,5 hPa 0,0 l/m 0 min 0 min 0,0 UV-I 0 W/m 20,6 km/h (4 Bft)
05.03.2013 05:02 3,6 C 1,8 C 73 % 1011,5 hPa 0,0 l/m 0 min 0 min 0,0 UV-I 0 W/m 23,2 km/h (4 Bft)
05.03.2013 05:04 3,6 C 1,8 C 73 % 1011,5 hPa 0,0 l/m 0 min 0 min 0,0 UV-I 0 W/m 20,6 km/h (4 Bft)
05.03.2013 05:06 3,6 C 1,8 C 73 % 1011,4 hPa 0,0 l/m 0 min 0 min 0,0 UV-I 0 W/m 23,2 km/h (4 Bft)
05.03.2013 05:08 3,6 C 1,8 C 74 % 1011,4 hPa 0,0 l/m 0 min 0 min 0,0 UV-I 0 W/m 18,0 km/h (3 Bft)
05.03.2013 05:10 3,6 C 1,8 C 73 % 1011,3 hPa 0,0 l/m 0 min 0 min 0,0 UV-I 0 W/m 15,4 km/h (3 Bft)
05.03.2013 05:12 3,6 C 1,8 C 73 % 1011,3 hPa 0,0 l/m 0 min 0 min 0,0 UV-I 0 W/m 18,0 km/h (3 Bft)
05.03.2013 05:14 3,6 C 1,8 C 73 % 1011,3 hPa 0,0 l/m 0 min 0 min 0,0 UV-I 0 W/m 23,2 km/h (4 Bft)
05.03.2013 05:16 3,6 C 1,8 C 73 % 1011,3 hPa 0,0 l/m 0 min 0 min 0,0 UV-I 0 W/m 18,0 km/h (3 Bft)
05.03.2013 05:18 3,6 C 1,8 C 73 % 1011,3 hPa 0,0 l/m 0 min 0 min 0,0 UV-I 0 W/m 20,6 km/h (4 Bft)
05.03.2013 05:20 3,7 C 1,8 C 73 % 1011,3 hPa 0,0 l/m 0 min 0 min 0,0 UV-I 0 W/m 18,0 km/h (3 Bft)
05.03.2013 05:22 3,6 C 1,8 C 73 % 1011,3 hPa 0,0 l/m 0 min 0 min 0,0 UV-I 0 W/m 23,2 km/h (4 Bft)
05.03.2013 05:24 3,6 C 1,8 C 73 % 1011,3 hPa 0,0 l/m 0 min 0 min 0,0 UV-I 0 W/m 18,0 km/h (3 Bft)
05.03.2013 05:26 3,6 C 1,8 C 73 % 1011,3 hPa 0,0 l/m 0 min 0 min 0,0 UV-I 0 W/m 30,9 km/h (5 Bft)
05.03.2013 05:28 3,6 C 1,8 C 73 % 1011,3 hPa 0,0 l/m 0 min 0 min 0,0 UV-I 0 W/m 18,0 km/h (3 Bft)
05.03.2013 05:30 3,6 C 1,8 C 73 % 1011,3 hPa 0,0 l/m 0 min 0 min 0,0 UV-I 0 W/m 25,7 km/h (4 Bft)
05.03.2013 05:32 3,6 C 1,8 C 73 % 1011,3 hPa 0,0 l/m 0 min 0 min 0,0 UV-I 0 W/m 20,6 km/h (4 Bft)
05.03.2013 05:34 3,5 C 1,8 C 73 % 1011,2 hPa 0,0 l/m 0 min 0 min 0,0 UV-I 0 W/m 12,9 km/h (3 Bft)
05.03.2013 05:36 3,5 C 1,8 C 73 % 1011,2 hPa 0,0 l/m 0 min 0 min 0,0 UV-I 0 W/m 12,9 km/h (3 Bft)
05.03.2013 05:38 3,5 C 1,8 C 73 % 1011,2 hPa 0,0 l/m 0 min 0 min 0,0 UV-I 0 W/m 28,3 km/h (4 Bft)
05.03.2013 05:40 3,5 C 1,8 C 73 % 1011,3 hPa 0,0 l/m 0 min 0 min 0,0 UV-I 0 W/m 25,7 km/h (4 Bft)
05.03.2013 05:42 3,5 C 1,8 C 73 % 1011,3 hPa 0,0 l/m 0 min 0 min 0,0 UV-I 0 W/m 15,4 km/h (3 Bft)
05.03.2013 05:44 3,5 C 1,8 C 73 % 1011,3 hPa 0,0 l/m 0 min 0 min 0,0 UV-I 0 W/m 18,0 km/h (3 Bft)
05.03.2013 05:46 3,4 C 1,8 C 73 % 1011,2 hPa 0,0 l/m 0 min 0 min 0,0 UV-I 0 W/m 15,4 km/h (3 Bft)
05.03.2013 05:48 3,4 C 1,8 C 73 % 1011,1 hPa 0,0 l/m 0 min 0 min 0,0 UV-I 0 W/m 18,0 km/h (3 Bft)
05.03.2013 05:50 3,4 C 1,8 C 73 % 1011,1 hPa 0,0 l/m 0 min 0 min 0,0 UV-I 0 W/m 23,2 km/h (4 Bft)
05.03.2013 05:52 3,4 C 1,8 C 73 % 1011,1 hPa 0,0 l/m 0 min 0 min 0,0 UV-I 0 W/m 20,6 km/h (4 Bft)
05.03.2013 05:54 3,4 C 1,8 C 73 % 1011,1 hPa 0,0 l/m 0 min 0 min 0,0 UV-I 0 W/m 23,2 km/h (4 Bft)
05.03.2013 05:56 3,4 C 1,8 C 73 % 1011,2 hPa 0,0 l/m 0 min 0 min 0,0 UV-I 0 W/m 12,9 km/h (3 Bft)
05.03.2013 05:58 3,4 C 1,8 C 73 % 1011,1 hPa 0,0 l/m 0 min 0 min 0,0 UV-I 0 W/m 15,4 km/h (3 Bft)
05.03.2013 06:00 3,4 C 1,8 C 73 % 1011,1 hPa 0,0 l/m 0 min 0 min 0,0 UV-I 0 W/m 23,2 km/h (4 Bft)
05.03.2013 06:02 3,4 C 1,8 C 73 % 1011,1 hPa 0,0 l/m 0 min 0 min 0,0 UV-I 0 W/m 23,2 km/h (4 Bft)
05.03.2013 06:06 3,3 C 1,8 C 74 % 1011,1 hPa 0,0 l/m 0 min 0 min 0,0 UV-I 0 W/m 20,6 km/h (4 Bft)
05.03.2013 06:08 3,3 C 1,8 C 74 % 1011,1 hPa 0,0 l/m 0 min 0 min 0,0 UV-I 0 W/m 18,0 km/h (3 Bft)
05.03.2013 06:10 3,3 C 1,2 C 74 % 1011,1 hPa 0,0 l/m 0 min 0 min 0,0 UV-I 0 W/m 15,4 km/h (3 Bft)
05.03.2013 06:12 3,3 C 1,2 C 74 % 1011,0 hPa 0,0 l/m 0 min 0 min 0,0 UV-I 0 W/m 15,4 km/h (3 Bft)
05.03.2013 06:14 3,3 C 1,2 C 74 % 1011,1 hPa 0,0 l/m 0 min 0 min 0,0 UV-I 0 W/m 20,6 km/h (4 Bft)
05.03.2013 06:16 3,3 C 1,8 C 74 % 1011,0 hPa 0,0 l/m 0 min 0 min 0,0 UV-I 0 W/m 20,6 km/h (4 Bft)
05.03.2013 06:18 3,3 C 1,2 C 74 % 1011,0 hPa 0,0 l/m 0 min 0 min 0,0 UV-I 0 W/m 12,9 km/h (3 Bft)
05.03.2013 06:20 3,3 C 1,2 C 74 % 1011,0 hPa 0,0 l/m 0 min 0 min 0,0 UV-I 0 W/m 7,7 km/h (2 Bft)
05.03.2013 06:22 3,2 C 1,2 C 74 % 1011,0 hPa 0,0 l/m 0 min 0 min 0,0 UV-I 0 W/m 20,6 km/h (4 Bft)
05.03.2013 06:24 3,2 C 1,2 C 74 % 1011,0 hPa 0,0 l/m 0 min 0 min 0,0 UV-I 0 W/m 20,6 km/h (4 Bft)
05.03.2013 06:26 3,2 C 1,2 C 74 % 1011,1 hPa 0,0 l/m 0 min 0 min 0,0 UV-I 0 W/m 18,0 km/h (3 Bft)
05.03.2013 06:28 3,2 C 1,8 C 74 % 1011,1 hPa 0,0 l/m 0 min 0 min 0,0 UV-I 0 W/m 18,0 km/h (3 Bft)
05.03.2013 06:30 3,2 C 1,8 C 74 % 1011,0 hPa 0,0 l/m 0 min 0 min 0,0 UV-I 0 W/m 20,6 km/h (4 Bft)
05.03.2013 06:32 3,2 C 1,2 C 73 % 1011,0 hPa 0,0 l/m 0 min 0 min 0,0 UV-I 0 W/m 10,3 km/h (2 Bft)
05.03.2013 06:34 3,2 C 1,2 C 73 % 1011,0 hPa 0,0 l/m 0 min 0 min 0,0 UV-I 0 W/m 18,0 km/h (3 Bft)
05.03.2013 06:36 3,2 C 1,2 C 74 % 1011,0 hPa 0,0 l/m 0 min 0 min 0,0 UV-I 0 W/m 12,9 km/h (3 Bft)
05.03.2013 06:38 3,2 C 1,2 C 74 % 1011,0 hPa 0,0 l/m 0 min 0 min 0,0 UV-I 0 W/m 12,9 km/h (3 Bft)
05.03.2013 06:40 3,2 C 1,2 C 73 % 1011,0 hPa 0,0 l/m 0 min 0 min 0,0 UV-I 0 W/m 12,9 km/h (3 Bft)
05.03.2013 06:42 3,2 C 1,2 C 73 % 1011,1 hPa 0,0 l/m 0 min 0 min 0,0 UV-I 0 W/m 15,4 km/h (3 Bft)
05.03.2013 06:44 3,2 C 1,2 C 73 % 1011,1 hPa 0,0 l/m 0 min 0 min 0,0 UV-I 0 W/m 15,4 km/h (3 Bft)
05.03.2013 06:46 3,1 C 1,2 C 73 % 1011,1 hPa 0,0 l/m 0 min 0 min 0,0 UV-I 0 W/m 15,4 km/h (3 Bft)
05.03.2013 06:48 3,1 C 1,2 C 74 % 1011,0 hPa 0,0 l/m 0 min 0 min 0,0 UV-I 0 W/m 12,9 km/h (3 Bft)
05.03.2013 06:50 3,1 C 1,2 C 74 % 1011,1 hPa 0,0 l/m 0 min 0 min 0,0 UV-I 0 W/m 18,0 km/h (3 Bft)
05.03.2013 06:52 3,1 C 1,2 C 74 % 1011,1 hPa 0,0 l/m 0 min 0 min 0,0 UV-I 0 W/m 12,9 km/h (3 Bft)
05.03.2013 06:54 3,1 C 1,2 C 74 % 1011,2 hPa 0,0 l/m 0 min 0 min 0,0 UV-I 0 W/m 12,9 km/h (3 Bft)
05.03.2013 06:56 3,0 C 1,2 C 74 % 1011,1 hPa 0,0 l/m 0 min 0 min 0,0 UV-I 0 W/m 18,0 km/h (3 Bft)
05.03.2013 06:58 3,0 C 1,2 C 74 % 1011,1 hPa 0,0 l/m 0 min 0 min 0,0 UV-I 0 W/m 18,0 km/h (3 Bft)
05.03.2013 07:00 3,0 C 1,2 C 74 % 1011,1 hPa 0,0 l/m 0 min 0 min 0,0 UV-I 0 W/m 12,9 km/h (3 Bft)
05.03.2013 07:02 2,9 C 1,2 C 74 % 1011,1 hPa 0,0 l/m 0 min 0 min 0,0 UV-I 0 W/m 15,4 km/h (3 Bft)
05.03.2013 07:04 2,9 C 1,2 C 74 % 1011,1 hPa 0,0 l/m 0 min 0 min 0,0 UV-I 0 W/m 15,4 km/h (3 Bft)
05.03.2013 07:06 2,9 C 1,2 C 74 % 1011,1 hPa 0,0 l/m 0 min 0 min 0,0 UV-I 0 W/m 10,3 km/h (2 Bft)
05.03.2013 07:08 2,9 C 1,2 C 74 % 1011,1 hPa 0,0 l/m 0 min 0 min 0,0 UV-I 0 W/m 0,0 km/h (0 Bft)
05.03.2013 07:10 2,9 C 0,7 C 75 % 1011,1 hPa 0,0 l/m 0 min 0 min 0,0 UV-I 5 W/m 18,0 km/h (3 Bft)
05.03.2013 07:12 2,8 C 1,2 C 75 % 1011,1 hPa 0,0 l/m 0 min 0 min 0,0 UV-I 5 W/m 20,6 km/h (4 Bft)
05.03.2013 07:14 2,8 C 0,7 C 75 % 1011,1 hPa 0,0 l/m 0 min 0 min 0,0 UV-I 5 W/m 15,4 km/h (3 Bft)
05.03.2013 07:16 2,8 C 1,2 C 75 % 1011,1 hPa 0,0 l/m 0 min 0 min 0,0 UV-I 7 W/m 7,7 km/h (2 Bft)
05.03.2013 07:18 2,8 C 1,2 C 75 % 1011,1 hPa 0,0 l/m 0 min 0 min 0,0 UV-I 7 W/m 18,0 km/h (3 Bft)
05.03.2013 07:20 2,8 C 1,2 C 75 % 1011,1 hPa 0,0 l/m 0 min 0 min 0,0 UV-I 7 W/m 15,4 km/h (3 Bft)
05.03.2013 07:22 2,8 C 1,2 C 75 % 1011,1 hPa 0,0 l/m 0 min 0 min 0,0 UV-I 9 W/m 12,9 km/h (3 Bft)
05.03.2013 07:24 2,7 C 1,2 C 75 % 1011,1 hPa 0,0 l/m 0 min 0 min 0,0 UV-I 11 W/m 12,9 km/h (3 Bft)
05.03.2013 07:26 2,7 C 1,2 C 75 % 1011,1 hPa 0,0 l/m 0 min 0 min 0,0 UV-I 11 W/m 12,9 km/h (3 Bft)
05.03.2013 07:28 2,7 C 1,2 C 75 % 1011,1 hPa 0,0 l/m 0 min 0 min 0,0 UV-I 11 W/m 18,0 km/h (3 Bft)
05.03.2013 07:30 2,7 C 1,2 C 75 % 1011,1 hPa 0,0 l/m 0 min 0 min 0,0 UV-I 12 W/m 15,4 km/h (3 Bft)
05.03.2013 07:32 2,7 C 1,2 C 75 % 1011,1 hPa 0,0 l/m 0 min 0 min 0,0 UV-I 12 W/m 15,4 km/h (3 Bft)
05.03.2013 07:34 2,7 C 1,2 C 75 % 1011,1 hPa 0,0 l/m 0 min 0 min 0,0 UV-I 14 W/m 18,0 km/h (3 Bft)
05.03.2013 07:36 2,7 C 1,2 C 75 % 1011,1 hPa 0,0 l/m 0 min 0 min 0,0 UV-I 14 W/m 15,4 km/h (3 Bft)
05.03.2013 07:38 2,7 C 1,2 C 75 % 1011,0 hPa 0,0 l/m 0 min 0 min 0,0 UV-I 16 W/m 15,4 km/h (3 Bft)
05.03.2013 07:40 2,7 C 1,2 C 75 % 1011,0 hPa 0,0 l/m 0 min 0 min 0,0 UV-I 16 W/m 18,0 km/h (3 Bft)
05.03.2013 07:42 2,7 C 1,2 C 75 % 1011,0 hPa 0,0 l/m 0 min 0 min 0,0 UV-I 18 W/m 15,4 km/h (3 Bft)
05.03.2013 07:44 2,7 C 1,2 C 75 % 1011,1 hPa 0,0 l/m 0 min 0 min 0,0 UV-I 18 W/m 20,6 km/h (4 Bft)
05.03.2013 07:46 2,7 C 1,2 C 75 % 1011,1 hPa 0,0 l/m 0 min 0 min 0,0 UV-I 19 W/m 15,4 km/h (3 Bft)
05.03.2013 07:48 2,7 C 1,2 C 75 % 1011,1 hPa 0,0 l/m 0 min 0 min 0,0 UV-I 19 W/m 20,6 km/h (4 Bft)
05.03.2013 07:50 2,7 C 1,2 C 75 % 1011,0 hPa 0,0 l/m 0 min 0 min 0,0 UV-I 21 W/m 15,4 km/h (3 Bft)
05.03.2013 07:52 2,8 C 1,2 C 75 % 1011,0 hPa 0,0 l/m 0 min 0 min 0,0 UV-I 21 W/m 23,2 km/h (4 Bft)
05.03.2013 07:54 2,8 C 1,2 C 75 % 1011,0 hPa 0,0 l/m 0 min 0 min 0,0 UV-I 23 W/m 12,9 km/h (3 Bft)
05.03.2013 07:56 2,8 C 1,2 C 75 % 1011,0 hPa 0,0 l/m 0 min 0 min 0,0 UV-I 23 W/m 15,4 km/h (3 Bft)
05.03.2013 07:58 2,8 C 1,8 C 75 % 1011,0 hPa 0,0 l/m 0 min 0 min 0,0 UV-I 25 W/m 23,2 km/h (4 Bft)
05.03.2013 08:00 2,8 C 1,8 C 75 % 1011,0 hPa 0,0 l/m 0 min 0 min 0,0 UV-I 25 W/m 18,0 km/h (3 Bft)
05.03.2013 08:02 2,8 C 1,8 C 75 % 1011,1 hPa 0,0 l/m 0 min 0 min 0,0 UV-I 26 W/m 18,0 km/h (3 Bft)
05.03.2013 08:04 2,9 C 1,8 C 75 % 1011,1 hPa 0,0 l/m 0 min 0 min 0,0 UV-I 26 W/m 15,4 km/h (3 Bft)
05.03.2013 08:06 2,9 C 1,8 C 75 % 1011,2 hPa 0,0 l/m 0 min 0 min 0,0 UV-I 26 W/m 10,3 km/h (2 Bft)
05.03.2013 08:08 2,9 C 1,8 C 75 % 1011,2 hPa 0,0 l/m 0 min 0 min 0,0 UV-I 28 W/m 12,9 km/h (3 Bft)
05.03.2013 08:10 2,9 C 1,8 C 75 % 1011,2 hPa 0,0 l/m 0 min 0 min 0,0 UV-I 28 W/m 12,9 km/h (3 Bft)
05.03.2013 08:12 3,0 C 1,8 C 75 % 1011,1 hPa 0,0 l/m 0 min 0 min 0,0 UV-I 30 W/m 15,4 km/h (3 Bft)
05.03.2013 08:14 3,0 C 1,8 C 75 % 1011,1 hPa 0,0 l/m 0 min 0 min 0,0 UV-I 30 W/m 28,3 km/h (4 Bft)
05.03.2013 08:16 3,1 C 1,8 C 75 % 1011,1 hPa 0,0 l/m 0 min 0 min 0,0 UV-I 30 W/m 15,4 km/h (3 Bft)
05.03.2013 08:18 3,1 C 1,8 C 75 % 1011,2 hPa 0,0 l/m 0 min 0 min 0,0 UV-I 32 W/m 20,6 km/h (4 Bft)
05.03.2013 08:20 3,1 C 1,8 C 75 % 1011,2 hPa 0,0 l/m 0 min 0 min 0,0 UV-I 32 W/m 15,4 km/h (3 Bft)
05.03.2013 08:22 3,2 C 1,8 C 75 % 1011,2 hPa 0,0 l/m 0 min 0 min 0,0 UV-I 33 W/m 20,6 km/h (4 Bft)
05.03.2013 08:24 3,2 C 1,8 C 75 % 1011,3 hPa 0,0 l/m 0 min 0 min 0,0 UV-I 33 W/m 20,6 km/h (4 Bft)
05.03.2013 08:26 3,2 C 2,3 C 74 % 1011,3 hPa 0,0 l/m 0 min 0 min 0,0 UV-I 33 W/m 20,6 km/h (4 Bft)
05.03.2013 08:28 3,2 C 2,3 C 74 % 1011,2 hPa 0,0 l/m 0 min 0 min 0,0 UV-I 35 W/m 12,9 km/h (3 Bft)
05.03.2013 08:30 3,3 C 2,3 C 74 % 1011,2 hPa 0,0 l/m 0 min 0 min 0,0 UV-I 37 W/m 23,2 km/h (4 Bft)
05.03.2013 08:32 3,3 C 2,3 C 74 % 1011,2 hPa 0,0 l/m 0 min 0 min 0,0 UV-I 42 W/m 15,4 km/h (3 Bft)
05.03.2013 08:34 3,3 C 2,3 C 74 % 1011,3 hPa 0,0 l/m 0 min 0 min 0,0 UV-I 42 W/m 18,0 km/h (3 Bft)
05.03.2013 08:36 3,4 C 2,3 C 74 % 1011,2 hPa 0,0 l/m 0 min 0 min 0,0 UV-I 39 W/m 30,9 km/h (5 Bft)
05.03.2013 08:38 3,4 C 2,3 C 74 % 1011,3 hPa 0,0 l/m 0 min 0 min 0,0 UV-I 40 W/m 18,0 km/h (3 Bft)
05.03.2013 08:40 3,5 C 2,3 C 74 % 1011,2 hPa 0,0 l/m 0 min 0 min 0,0 UV-I 40 W/m 23,2 km/h (4 Bft)
05.03.2013 08:42 3,5 C 2,3 C 74 % 1011,3 hPa 0,0 l/m 0 min 0 min 0,0 UV-I 40 W/m 38,6 km/h (5 Bft)
05.03.2013 08:44 3,6 C 2,3 C 74 % 1011,2 hPa 0,0 l/m 0 min 0 min 0,0 UV-I 42 W/m 10,3 km/h (2 Bft)
05.03.2013 08:46 3,6 C 2,3 C 73 % 1011,2 hPa 0,0 l/m 0 min 0 min 0,0 UV-I 46 W/m 25,7 km/h (4 Bft)
05.03.2013 08:48 3,7 C 2,3 C 73 % 1011,2 hPa 0,0 l/m 0 min 0 min 0,0 UV-I 44 W/m 28,3 km/h (4 Bft)
05.03.2013 08:50 3,7 C 2,9 C 73 % 1011,2 hPa 0,0 l/m 0 min 0 min 0,0 UV-I 44 W/m 20,6 km/h (4 Bft)
05.03.2013 08:52 3,8 C 2,9 C 73 % 1011,3 hPa 0,0 l/m 0 min 0 min 0,0 UV-I 95 W/m 18,0 km/h (3 Bft)
05.03.2013 08:54 3,8 C 2,9 C 73 % 1011,2 hPa 0,0 l/m 2 min 0 min 0,0 UV-I 142 W/m 28,3 km/h (4 Bft)
05.03.2013 08:56 3,8 C 2,9 C 73 % 1011,2 hPa 0,0 l/m 2 min 0 min 0,0 UV-I 167 W/m 18,0 km/h (3 Bft)
05.03.2013 08:58 3,9 C 2,9 C 73 % 1011,2 hPa 0,0 l/m 2 min 0 min 0,0 UV-I 178 W/m 12,9 km/h (3 Bft)
05.03.2013 09:00 3,9 C 2,9 C 73 % 1011,2 hPa 0,0 l/m 2 min 0 min 0,0 UV-I 181 W/m 18,0 km/h (3 Bft)
05.03.2013 09:02 4,0 C 2,9 C 73 % 1011,1 hPa 0,0 l/m 2 min 0 min 0,0 UV-I 186 W/m 20,6 km/h (4 Bft)
05.03.2013 09:06 4,2 C 2,9 C 72 % 1011,1 hPa 0,0 l/m 2 min 0 min 0,0 UV-I 197 W/m 36,0 km/h (5 Bft)
05.03.2013 09:08 4,2 C 3,4 C 72 % 1011,0 hPa 0,0 l/m 2 min 0 min 0,0 UV-I 200 W/m 18,0 km/h (3 Bft)
05.03.2013 09:10 4,3 C 3,4 C 72 % 1011,1 hPa 0,0 l/m 2 min 0 min 0,0 UV-I 206 W/m 18,0 km/h (3 Bft)
05.03.2013 09:12 4,4 C 3,4 C 72 % 1011,2 hPa 0,0 l/m 2 min 0 min 0,0 UV-I 209 W/m 23,2 km/h (4 Bft)
05.03.2013 09:14 4,6 C 3,4 C 72 % 1011,2 hPa 0,0 l/m 2 min 0 min 0,0 UV-I 213 W/m 18,0 km/h (3 Bft)
05.03.2013 09:16 4,7 C 3,4 C 72 % 1011,2 hPa 0,0 l/m 2 min 0 min 0,0 UV-I 220 W/m 15,4 km/h (3 Bft)
05.03.2013 09:18 4,8 C 3,4 C 71 % 1011,2 hPa 0,0 l/m 2 min 0 min 0,0 UV-I 223 W/m 15,4 km/h (3 Bft)
05.03.2013 09:20 4,9 C 3,4 C 71 % 1011,1 hPa 0,0 l/m 2 min 0 min 0,0 UV-I 229 W/m 18,0 km/h (3 Bft)
05.03.2013 09:22 5,0 C 3,4 C 71 % 1011,1 hPa 0,0 l/m 2 min 0 min 0,0 UV-I 234 W/m 12,9 km/h (3 Bft)
05.03.2013 09:24 5,1 C 3,4 C 71 % 1011,1 hPa 0,0 l/m 2 min 0 min 0,0 UV-I 239 W/m 10,3 km/h (2 Bft)
05.03.2013 09:26 5,2 C 4,0 C 71 % 1011,0 hPa 0,0 l/m 2 min 0 min 0,0 UV-I 244 W/m 10,3 km/h (2 Bft)
05.03.2013 09:28 5,3 C 4,0 C 70 % 1011,0 hPa 0,0 l/m 2 min 0 min 0,0 UV-I 248 W/m 10,3 km/h (2 Bft)
05.03.2013 09:30 5,3 C 4,0 C 71 % 1011,1 hPa 0,0 l/m 2 min 0 min 0,0 UV-I 251 W/m 18,0 km/h (3 Bft)
05.03.2013 09:32 5,4 C 4,0 C 70 % 1011,0 hPa 0,0 l/m 2 min 0 min 0,0 UV-I 257 W/m 15,4 km/h (3 Bft)
05.03.2013 09:34 5,6 C 4,0 C 70 % 1011,0 hPa 0,0 l/m 2 min 0 min 0,0 UV-I 260 W/m 12,9 km/h (3 Bft)
05.03.2013 09:36 5,7 C 4,0 C 69 % 1010,9 hPa 0,0 l/m 2 min 0 min 0,0 UV-I 265 W/m 18,0 km/h (3 Bft)
05.03.2013 09:38 5,8 C 4,0 C 69 % 1011,0 hPa 0,0 l/m 2 min 0 min 0,0 UV-I 271 W/m 15,4 km/h (3 Bft)
05.03.2013 09:40 5,9 C 4,6 C 69 % 1010,9 hPa 0,0 l/m 2 min 0 min 0,0 UV-I 274 W/m 18,0 km/h (3 Bft)
05.03.2013 09:42 6,0 C 4,6 C 69 % 1010,9 hPa 0,0 l/m 2 min 0 min 0,0 UV-I 279 W/m 10,3 km/h (2 Bft)
05.03.2013 09:44 6,1 C 4,6 C 69 % 1010,9 hPa 0,0 l/m 2 min 0 min 0,0 UV-I 285 W/m 18,0 km/h (3 Bft)
05.03.2013 09:46 6,2 C 4,6 C 68 % 1010,9 hPa 0,0 l/m 2 min 0 min 0,0 UV-I 290 W/m 18,0 km/h (3 Bft)
05.03.2013 09:48 6,3 C 4,6 C 67 % 1010,9 hPa 0,0 l/m 2 min 0 min 0,0 UV-I 292 W/m 33,5 km/h (5 Bft)
05.03.2013 09:50 6,4 C 4,6 C 67 % 1010,9 hPa 0,0 l/m 2 min 0 min 0,0 UV-I 299 W/m 12,9 km/h (3 Bft)
05.03.2013 09:52 6,5 C 4,6 C 67 % 1010,9 hPa 0,0 l/m 2 min 0 min 0,0 UV-I 302 W/m 18,0 km/h (3 Bft)
05.03.2013 09:54 6,6 C 5,1 C 67 % 1011,0 hPa 0,0 l/m 2 min 0 min 0,0 UV-I 306 W/m 12,9 km/h (3 Bft)
05.03.2013 09:56 6,7 C 5,1 C 67 % 1010,9 hPa 0,0 l/m 2 min 0 min 0,0 UV-I 311 W/m 12,9 km/h (3 Bft)
05.03.2013 09:58 6,7 C 5,1 C 67 % 1010,9 hPa 0,0 l/m 2 min 0 min 0,0 UV-I 315 W/m 20,6 km/h (4 Bft)
05.03.2013 10:00 6,8 C 5,1 C 66 % 1010,9 hPa 0,0 l/m 2 min 0 min 0,0 UV-I 318 W/m 15,4 km/h (3 Bft)
05.03.2013 10:02 6,8 C 5,1 C 66 % 1010,9 hPa 0,0 l/m 2 min 0 min 0,0 UV-I 325 W/m 18,0 km/h (3 Bft)
05.03.2013 10:04 6,9 C 5,7 C 66 % 1010,8 hPa 0,0 l/m 2 min 0 min 0,0 UV-I 329 W/m 25,7 km/h (4 Bft)
05.03.2013 10:06 7,0 C 5,7 C 66 % 1010,8 hPa 0,0 l/m 2 min 0 min 0,0 UV-I 332 W/m 12,9 km/h (3 Bft)
05.03.2013 10:08 7,1 C 5,7 C 66 % 1010,8 hPa 0,0 l/m 2 min 0 min 0,0 UV-I 339 W/m 10,3 km/h (2 Bft)
05.03.2013 10:10 7,2 C 5,7 C 65 % 1010,7 hPa 0,0 l/m 2 min 0 min 0,0 UV-I 341 W/m 18,0 km/h (3 Bft)
05.03.2013 10:12 7,2 C 5,7 C 65 % 1010,8 hPa 0,0 l/m 2 min 0 min 0,0 UV-I 345 W/m 25,7 km/h (4 Bft)
05.03.2013 10:14 7,2 C 5,7 C 65 % 1010,7 hPa 0,0 l/m 2 min 0 min 0,0 UV-I 350 W/m 15,4 km/h (3 Bft)
05.03.2013 10:16 7,3 C 6,2 C 65 % 1010,7 hPa 0,0 l/m 2 min 0 min 0,0 UV-I 353 W/m 18,0 km/h (3 Bft)
05.03.2013 10:18 7,4 C 6,2 C 65 % 1010,7 hPa 0,0 l/m 2 min 0 min 0,0 UV-I 355 W/m 25,7 km/h (4 Bft)
05.03.2013 10:20 7,5 C 6,2 C 65 % 1010,6 hPa 0,0 l/m 2 min 0 min 0,0 UV-I 360 W/m 15,4 km/h (3 Bft)
05.03.2013 10:22 7,6 C 6,2 C 65 % 1010,6 hPa 0,0 l/m 2 min 0 min 0,0 UV-I 362 W/m 20,6 km/h (4 Bft)
05.03.2013 10:24 7,7 C 6,2 C 64 % 1010,7 hPa 0,0 l/m 2 min 0 min 0,0 UV-I 366 W/m 23,2 km/h (4 Bft)
05.03.2013 10:26 7,8 C 6,8 C 64 % 1010,7 hPa 0,0 l/m 2 min 0 min 0,0 UV-I 373 W/m 18,0 km/h (3 Bft)
05.03.2013 10:28 7,8 C 6,8 C 64 % 1010,7 hPa 0,0 l/m 2 min 0 min 0,0 UV-I 374 W/m 25,7 km/h (4 Bft)
05.03.2013 10:30 7,9 C 6,8 C 63 % 1010,7 hPa 0,0 l/m 2 min 0 min 0,0 UV-I 378 W/m 25,7 km/h (4 Bft)
05.03.2013 10:32 7,9 C 6,8 C 63 % 1010,6 hPa 0,0 l/m 2 min 0 min 0,0 UV-I 381 W/m 28,3 km/h (4 Bft)
05.03.2013 10:34 8,0 C 6,8 C 63 % 1010,7 hPa 0,0 l/m 2 min 0 min 0,0 UV-I 387 W/m 23,2 km/h (4 Bft)
05.03.2013 10:36 8,0 C 6,8 C 63 % 1010,7 hPa 0,0 l/m 2 min 0 min 0,5 UV-I 387 W/m 23,2 km/h (4 Bft)
05.03.2013 10:38 8,1 C 6,8 C 63 % 1010,7 hPa 0,0 l/m 2 min 0 min 0,5 UV-I 392 W/m 12,9 km/h (3 Bft)
05.03.2013 10:40 8,1 C 6,8 C 63 % 1010,6 hPa 0,0 l/m 2 min 0 min 0,5 UV-I 394 W/m 12,9 km/h (3 Bft)
05.03.2013 10:42 8,2 C 6,8 C 63 % 1010,6 hPa 0,0 l/m 2 min 0 min 0,5 UV-I 396 W/m 30,9 km/h (5 Bft)
05.03.2013 10:44 8,2 C 6,8 C 63 % 1010,6 hPa 0,0 l/m 2 min 0 min 0,5 UV-I 403 W/m 20,6 km/h (4 Bft)
05.03.2013 10:46 8,3 C 6,8 C 63 % 1010,5 hPa 0,0 l/m 2 min 0 min 0,6 UV-I 404 W/m 18,0 km/h (3 Bft)
05.03.2013 10:48 8,3 C 6,8 C 63 % 1010,5 hPa 0,0 l/m 2 min 0 min 0,6 UV-I 410 W/m 18,0 km/h (3 Bft)
05.03.2013 10:50 8,4 C 7,3 C 63 % 1010,5 hPa 0,0 l/m 2 min 0 min 0,6 UV-I 410 W/m 18,0 km/h (3 Bft)
05.03.2013 10:52 8,5 C 7,3 C 63 % 1010,5 hPa 0,0 l/m 2 min 0 min 0,6 UV-I 413 W/m 15,4 km/h (3 Bft)
05.03.2013 10:54 8,6 C 7,3 C 63 % 1010,4 hPa 0,0 l/m 2 min 0 min 0,6 UV-I 418 W/m 18,0 km/h (3 Bft)
05.03.2013 10:56 8,6 C 7,3 C 62 % 1010,5 hPa 0,0 l/m 2 min 0 min 0,6 UV-I 424 W/m 18,0 km/h (3 Bft)
05.03.2013 10:58 8,7 C 7,3 C 62 % 1010,4 hPa 0,0 l/m 2 min 0 min 0,7 UV-I 425 W/m 12,9 km/h (3 Bft)
05.03.2013 11:00 8,8 C 7,3 C 62 % 1010,4 hPa 0,0 l/m 2 min 0 min 0,7 UV-I 427 W/m 7,7 km/h (2 Bft)
05.03.2013 11:02 8,8 C 7,3 C 63 % 1010,4 hPa 0,0 l/m 2 min 0 min 0,7 UV-I 431 W/m 15,4 km/h (3 Bft)
05.03.2013 11:04 8,9 C 7,3 C 63 % 1010,4 hPa 0,0 l/m 2 min 0 min 0,7 UV-I 434 W/m 12,9 km/h (3 Bft)
05.03.2013 11:06 9,0 C 7,9 C 62 % 1010,4 hPa 0,0 l/m 2 min 0 min 0,7 UV-I 438 W/m 20,6 km/h (4 Bft)
05.03.2013 11:08 9,1 C 7,9 C 62 % 1010,4 hPa 0,0 l/m 2 min 0 min 0,7 UV-I 439 W/m 18,0 km/h (3 Bft)
05.03.2013 11:10 9,2 C 7,9 C 62 % 1010,4 hPa 0,0 l/m 2 min 0 min 0,8 UV-I 441 W/m 20,6 km/h (4 Bft)
05.03.2013 11:12 9,3 C 7,9 C 61 % 1010,3 hPa 0,0 l/m 2 min 0 min 0,8 UV-I 446 W/m 20,6 km/h (4 Bft)
05.03.2013 11:14 9,3 C 7,9 C 61 % 1010,4 hPa 0,0 l/m 2 min 0 min 0,8 UV-I 450 W/m 18,0 km/h (3 Bft)
05.03.2013 11:16 9,4 C 8,4 C 61 % 1010,4 hPa 0,0 l/m 2 min 0 min 0,8 UV-I 450 W/m 15,4 km/h (3 Bft)
05.03.2013 11:18 9,5 C 8,4 C 61 % 1010,4 hPa 0,0 l/m 2 min 0 min 0,8 UV-I 454 W/m 18,0 km/h (3 Bft)
05.03.2013 11:20 9,6 C 8,4 C 61 % 1010,4 hPa 0,0 l/m 2 min 0 min 0,8 UV-I 459 W/m 10,3 km/h (2 Bft)
05.03.2013 11:22 9,7 C 9,0 C 61 % 1010,4 hPa 0,0 l/m 2 min 0 min 0,9 UV-I 459 W/m 18,0 km/h (3 Bft)
05.03.2013 11:24 9,8 C 9,0 C 60 % 1010,4 hPa 0,0 l/m 2 min 0 min 0,9 UV-I 464 W/m 20,6 km/h (4 Bft)
05.03.2013 11:26 9,9 C 9,0 C 59 % 1010,4 hPa 0,0 l/m 2 min 0 min 0,9 UV-I 466 W/m 20,6 km/h (4 Bft)
05.03.2013 11:28 9,9 C 9,0 C 60 % 1010,4 hPa 0,0 l/m 2 min 0 min 0,9 UV-I 468 W/m 23,2 km/h (4 Bft)
05.03.2013 11:30 10,0 C 9,0 C 59 % 1010,4 hPa 0,0 l/m 2 min 0 min 0,9 UV-I 469 W/m 18,0 km/h (3 Bft)
05.03.2013 11:32 10,1 C 9,0 C 60 % 1010,4 hPa 0,0 l/m 2 min 0 min 0,9 UV-I 473 W/m 20,6 km/h (4 Bft)
05.03.2013 11:34 10,2 C 9,0 C 59 % 1010,4 hPa 0,0 l/m 2 min 0 min 0,9 UV-I 473 W/m 20,6 km/h (4 Bft)
05.03.2013 11:36 10,3 C 9,0 C 59 % 1010,4 hPa 0,0 l/m 2 min 0 min 1,0 UV-I 476 W/m 25,7 km/h (4 Bft)
05.03.2013 11:38 10,3 C 9,6 C 59 % 1010,4 hPa 0,0 l/m 2 min 0 min 1,0 UV-I 480 W/m 23,2 km/h (4 Bft)
05.03.2013 11:40 10,4 C 9,6 C 60 % 1010,4 hPa 0,0 l/m 2 min 0 min 1,0 UV-I 482 W/m 15,4 km/h (3 Bft)
05.03.2013 11:42 10,5 C 9,6 C 60 % 1010,3 hPa 0,0 l/m 2 min 0 min 1,0 UV-I 483 W/m 18,0 km/h (3 Bft)
05.03.2013 11:44 10,6 C 9,6 C 60 % 1010,3 hPa 0,0 l/m 2 min 0 min 1,0 UV-I 485 W/m 12,9 km/h (3 Bft)
05.03.2013 11:46 10,7 C 10,1 C 60 % 1010,3 hPa 0,0 l/m 2 min 0 min 1,0 UV-I 487 W/m 15,4 km/h (3 Bft)
05.03.2013 11:48 10,7 C 9,6 C 60 % 1010,2 hPa 0,0 l/m 2 min 0 min 1,0 UV-I 490 W/m 18,0 km/h (3 Bft)
05.03.2013 11:50 10,8 C 9,6 C 59 % 1010,2 hPa 0,0 l/m 2 min 0 min 1,1 UV-I 494 W/m 20,6 km/h (4 Bft)
05.03.2013 11:52 10,8 C 9,6 C 59 % 1010,1 hPa 0,0 l/m 2 min 0 min 1,1 UV-I 494 W/m 15,4 km/h (3 Bft)
05.03.2013 11:54 10,9 C 9,6 C 59 % 1010,1 hPa 0,0 l/m 2 min 0 min 1,1 UV-I 496 W/m 15,4 km/h (3 Bft)
05.03.2013 11:56 11,0 C 9,6 C 58 % 1010,0 hPa 0,0 l/m 2 min 0 min 1,1 UV-I 496 W/m 23,2 km/h (4 Bft)
05.03.2013 11:58 11,1 C 9,6 C 58 % 1010,0 hPa 0,0 l/m 2 min 0 min 1,1 UV-I 497 W/m 15,4 km/h (3 Bft)
05.03.2013 12:00 11,2 C 9,6 C 58 % 1010,0 hPa 0,0 l/m 2 min 0 min 1,1 UV-I 499 W/m 10,3 km/h (2 Bft)
05.03.2013 12:02 11,3 C 9,6 C 59 % 1010,0 hPa 0,0 l/m 2 min 0 min 1,1 UV-I 501 W/m 5,1 km/h (1 Bft)
05.03.2013 12:06 11,4 C 9,6 C 56 % 1010,0 hPa 0,0 l/m 2 min 0 min 1,1 UV-I 503 W/m 18,0 km/h (3 Bft)
05.03.2013 12:08 11,5 C 10,1 C 57 % 1010,0 hPa 0,0 l/m 2 min 0 min 1,1 UV-I 503 W/m 23,2 km/h (4 Bft)
05.03.2013 12:10 11,5 C 10,1 C 57 % 1010,1 hPa 0,0 l/m 2 min 0 min 1,1 UV-I 504 W/m 5,1 km/h (1 Bft)
05.03.2013 12:12 11,6 C 10,1 C 57 % 1010,1 hPa 0,0 l/m 2 min 0 min 1,1 UV-I 504 W/m 18,0 km/h (3 Bft)
05.03.2013 12:14 11,7 C 10,1 C 57 % 1010,0 hPa 0,0 l/m 2 min 0 min 1,2 UV-I 508 W/m 7,7 km/h (2 Bft)
05.03.2013 12:16 11,7 C 10,1 C 57 % 1010,0 hPa 0,0 l/m 2 min 0 min 1,2 UV-I 508 W/m 18,0 km/h (3 Bft)
05.03.2013 12:18 11,8 C 10,1 C 57 % 1010,0 hPa 0,0 l/m 2 min 0 min 1,2 UV-I 508 W/m 12,9 km/h (3 Bft)
05.03.2013 12:20 11,9 C 10,7 C 57 % 1009,9 hPa 0,0 l/m 2 min 0 min 1,2 UV-I 510 W/m 10,3 km/h (2 Bft)
05.03.2013 12:22 12,0 C 10,7 C 57 % 1009,9 hPa 0,0 l/m 2 min 0 min 1,2 UV-I 513 W/m 7,7 km/h (2 Bft)
05.03.2013 12:24 12,1 C 10,7 C 56 % 1009,9 hPa 0,0 l/m 2 min 0 min 1,2 UV-I 512 W/m 18,0 km/h (3 Bft)
05.03.2013 12:26 12,2 C 11,2 C 56 % 1009,8 hPa 0,0 l/m 2 min 0 min 1,2 UV-I 515 W/m 15,4 km/h (3 Bft)
05.03.2013 12:28 12,3 C 11,2 C 57 % 1009,8 hPa 0,0 l/m 2 min 0 min 1,2 UV-I 517 W/m 18,0 km/h (3 Bft)
05.03.2013 12:30 12,3 C 11,2 C 56 % 1009,8 hPa 0,0 l/m 2 min 0 min 1,2 UV-I 517 W/m 18,0 km/h (3 Bft)
05.03.2013 12:32 12,4 C 11,2 C 57 % 1009,7 hPa 0,0 l/m 2 min 0 min 1,2 UV-I 519 W/m 12,9 km/h (3 Bft)
05.03.2013 12:34 12,4 C 10,7 C 57 % 1009,7 hPa 0,0 l/m 2 min 0 min 1,2 UV-I 517 W/m 18,0 km/h (3 Bft)
05.03.2013 12:36 12,5 C 10,7 C 57 % 1009,6 hPa 0,0 l/m 2 min 0 min 1,2 UV-I 519 W/m 12,9 km/h (3 Bft)
05.03.2013 12:38 12,6 C 11,2 C 56 % 1009,6 hPa 0,0 l/m 2 min 0 min 1,3 UV-I 520 W/m 12,9 km/h (3 Bft)
05.03.2013 12:40 12,7 C 11,2 C 56 % 1009,5 hPa 0,0 l/m 2 min 0 min 1,3 UV-I 520 W/m 18,0 km/h (3 Bft)
05.03.2013 12:42 12,7 C 11,2 C 56 % 1009,5 hPa 0,0 l/m 2 min 0 min 1,2 UV-I 519 W/m 15,4 km/h (3 Bft)
05.03.2013 12:44 12,8 C 11,2 C 55 % 1009,5 hPa 0,0 l/m 2 min 0 min 1,2 UV-I 520 W/m 20,6 km/h (4 Bft)
05.03.2013 12:46 12,8 C 11,2 C 55 % 1009,5 hPa 0,0 l/m 2 min 0 min 1,3 UV-I 520 W/m 12,9 km/h (3 Bft)
05.03.2013 12:48 12,9 C 11,2 C 56 % 1009,4 hPa 0,0 l/m 2 min 0 min 1,3 UV-I 522 W/m 12,9 km/h (3 Bft)
05.03.2013 12:50 12,9 C 11,2 C 56 % 1009,5 hPa 0,0 l/m 2 min 0 min 1,3 UV-I 522 W/m 15,4 km/h (3 Bft)
05.03.2013 12:52 13,0 C 11,8 C 56 % 1009,4 hPa 0,0 l/m 2 min 0 min 1,2 UV-I 520 W/m 15,4 km/h (3 Bft)
05.03.2013 12:54 13,1 C 11,2 C 56 % 1009,4 hPa 0,0 l/m 2 min 0 min 1,3 UV-I 522 W/m 10,3 km/h (2 Bft)
05.03.2013 12:56 13,2 C 11,2 C 56 % 1009,4 hPa 0,0 l/m 2 min 0 min 1,3 UV-I 524 W/m 18,0 km/h (3 Bft)
05.03.2013 12:58 13,2 C 11,8 C 55 % 1009,3 hPa 0,0 l/m 2 min 0 min 1,2 UV-I 520 W/m 15,4 km/h (3 Bft)
05.03.2013 13:00 13,3 C 11,8 C 55 % 1009,3 hPa 0,0 l/m 2 min 0 min 1,3 UV-I 524 W/m 12,9 km/h (3 Bft)
05.03.2013 13:02 13,3 C 11,8 C 55 % 1009,2 hPa 0,0 l/m 2 min 0 min 1,3 UV-I 522 W/m 12,9 km/h (3 Bft)
05.03.2013 13:04 13,3 C 11,8 C 55 % 1009,2 hPa 0,0 l/m 2 min 0 min 1,3 UV-I 524 W/m 18,0 km/h (3 Bft)
05.03.2013 13:06 13,4 C 11,8 C 55 % 1009,2 hPa 0,0 l/m 2 min 0 min 1,3 UV-I 522 W/m 18,0 km/h (3 Bft)
05.03.2013 13:08 13,4 C 12,3 C 54 % 1009,1 hPa 0,0 l/m 2 min 0 min 1,2 UV-I 522 W/m 15,4 km/h (3 Bft)
05.03.2013 13:10 13,5 C 12,3 C 53 % 1009,1 hPa 0,0 l/m 2 min 0 min 1,2 UV-I 520 W/m 15,4 km/h (3 Bft)
05.03.2013 13:12 13,5 C 11,8 C 53 % 1009,1 hPa 0,0 l/m 2 min 0 min 1,2 UV-I 519 W/m 18,0 km/h (3 Bft)
05.03.2013 13:14 13,6 C 11,8 C 54 % 1009,0 hPa 0,0 l/m 2 min 0 min 1,2 UV-I 520 W/m 12,9 km/h (3 Bft)
05.03.2013 13:16 13,6 C 11,8 C 53 % 1009,0 hPa 0,0 l/m 2 min 0 min 1,2 UV-I 519 W/m 10,3 km/h (2 Bft)
05.03.2013 13:18 13,7 C 11,8 C 53 % 1009,0 hPa 0,0 l/m 2 min 0 min 1,2 UV-I 519 W/m 12,9 km/h (3 Bft)
05.03.2013 13:20 13,7 C 11,8 C 53 % 1008,9 hPa 0,0 l/m 2 min 0 min 1,2 UV-I 519 W/m 18,0 km/h (3 Bft)
05.03.2013 13:22 13,8 C 11,8 C 52 % 1009,0 hPa 0,0 l/m 2 min 0 min 1,2 UV-I 519 W/m 18,0 km/h (3 Bft)
05.03.2013 13:24 13,8 C 11,8 C 52 % 1009,0 hPa 0,0 l/m 2 min 0 min 1,2 UV-I 519 W/m 10,3 km/h (2 Bft)
05.03.2013 13:26 13,8 C 11,8 C 54 % 1008,9 hPa 0,0 l/m 2 min 0 min 1,2 UV-I 515 W/m 10,3 km/h (2 Bft)
05.03.2013 13:28 13,9 C 11,8 C 52 % 1009,0 hPa 0,0 l/m 2 min 0 min 1,2 UV-I 517 W/m 12,9 km/h (3 Bft)
05.03.2013 13:30 13,9 C 11,8 C 52 % 1008,9 hPa 0,0 l/m 2 min 0 min 1,2 UV-I 513 W/m 15,4 km/h (3 Bft)
05.03.2013 13:32 14,0 C 11,8 C 53 % 1008,9 hPa 0,0 l/m 2 min 0 min 1,2 UV-I 513 W/m 12,9 km/h (3 Bft)
05.03.2013 13:34 14,1 C 11,8 C 53 % 1008,8 hPa 0,0 l/m 2 min 0 min 1,2 UV-I 512 W/m 15,4 km/h (3 Bft)
05.03.2013 13:36 14,1 C 12,3 C 53 % 1008,8 hPa 0,0 l/m 2 min 0 min 1,2 UV-I 512 W/m 18,0 km/h (3 Bft)
05.03.2013 13:38 14,1 C 12,3 C 54 % 1008,8 hPa 0,0 l/m 2 min 0 min 1,2 UV-I 508 W/m 7,7 km/h (2 Bft)
05.03.2013 13:40 14,2 C 12,3 C 53 % 1008,7 hPa 0,0 l/m 2 min 0 min 1,2 UV-I 510 W/m 18,0 km/h (3 Bft)
05.03.2013 13:42 14,2 C 12,3 C 54 % 1008,7 hPa 0,0 l/m 2 min 0 min 1,1 UV-I 510 W/m 7,7 km/h (2 Bft)
05.03.2013 13:44 14,3 C 12,3 C 53 % 1008,7 hPa 0,0 l/m 2 min 0 min 1,1 UV-I 508 W/m 15,4 km/h (3 Bft)
05.03.2013 13:46 14,3 C 12,3 C 53 % 1008,7 hPa 0,0 l/m 2 min 0 min 1,1 UV-I 506 W/m 18,0 km/h (3 Bft)
05.03.2013 13:48 14,3 C 12,3 C 52 % 1008,6 hPa 0,0 l/m 2 min 0 min 1,1 UV-I 504 W/m 18,0 km/h (3 Bft)
05.03.2013 13:50 14,3 C 12,3 C 52 % 1008,5 hPa 0,0 l/m 2 min 0 min 1,1 UV-I 504 W/m 12,9 km/h (3 Bft)
05.03.2013 13:52 14,3 C 12,3 C 52 % 1008,6 hPa 0,0 l/m 2 min 0 min 1,1 UV-I 503 W/m 18,0 km/h (3 Bft)
05.03.2013 13:54 14,3 C 12,3 C 52 % 1008,5 hPa 0,0 l/m 2 min 0 min 1,1 UV-I 499 W/m 12,9 km/h (3 Bft)
05.03.2013 13:56 14,3 C 12,3 C 53 % 1008,5 hPa 0,0 l/m 2 min 0 min 1,1 UV-I 497 W/m 15,4 km/h (3 Bft)
05.03.2013 13:58 14,3 C 12,3 C 52 % 1008,5 hPa 0,0 l/m 2 min 0 min 1,1 UV-I 496 W/m 12,9 km/h (3 Bft)
05.03.2013 14:00 14,3 C 12,3 C 52 % 1008,5 hPa 0,0 l/m 2 min 0 min 1,0 UV-I 496 W/m 12,9 km/h (3 Bft)
05.03.2013 14:02 14,3 C 12,3 C 52 % 1008,5 hPa 0,0 l/m 2 min 0 min 1,0 UV-I 492 W/m 12,9 km/h (3 Bft)
05.03.2013 14:04 14,4 C 12,3 C 52 % 1008,5 hPa 0,0 l/m 2 min 0 min 1,0 UV-I 490 W/m 7,7 km/h (2 Bft)
05.03.2013 14:06 14,4 C 12,3 C 52 % 1008,5 hPa 0,0 l/m 2 min 0 min 1,0 UV-I 489 W/m 10,3 km/h (2 Bft)
05.03.2013 14:08 14,4 C 12,9 C 52 % 1008,5 hPa 0,0 l/m 2 min 0 min 1,0 UV-I 485 W/m 12,9 km/h (3 Bft)
05.03.2013 14:10 14,4 C 12,9 C 51 % 1008,5 hPa 0,0 l/m 2 min 0 min 1,0 UV-I 485 W/m 15,4 km/h (3 Bft)
05.03.2013 14:12 14,5 C 12,9 C 51 % 1008,4 hPa 0,0 l/m 2 min 0 min 1,0 UV-I 483 W/m 18,0 km/h (3 Bft)
05.03.2013 14:14 14,5 C 12,9 C 51 % 1008,5 hPa 0,0 l/m 2 min 0 min 0,9 UV-I 482 W/m 15,4 km/h (3 Bft)
05.03.2013 14:16 14,5 C 12,9 C 51 % 1008,5 hPa 0,0 l/m 2 min 0 min 0,9 UV-I 480 W/m 18,0 km/h (3 Bft)
05.03.2013 14:18 14,5 C 12,9 C 51 % 1008,4 hPa 0,0 l/m 2 min 0 min 0,9 UV-I 478 W/m 20,6 km/h (4 Bft)
05.03.2013 14:20 14,5 C 12,9 C 50 % 1008,4 hPa 0,0 l/m 2 min 0 min 0,9 UV-I 475 W/m 12,9 km/h (3 Bft)
05.03.2013 14:22 14,6 C 12,9 C 51 % 1008,3 hPa 0,0 l/m 2 min 0 min 0,9 UV-I 473 W/m 12,9 km/h (3 Bft)
05.03.2013 14:24 14,6 C 12,9 C 51 % 1008,3 hPa 0,0 l/m 2 min 0 min 0,9 UV-I 469 W/m 20,6 km/h (4 Bft)
05.03.2013 14:26 14,6 C 12,9 C 51 % 1008,2 hPa 0,0 l/m 2 min 0 min 0,9 UV-I 466 W/m 15,4 km/h (3 Bft)
05.03.2013 14:28 14,6 C 12,9 C 51 % 1008,2 hPa 0,0 l/m 2 min 0 min 0,8 UV-I 466 W/m 12,9 km/h (3 Bft)
05.03.2013 14:30 14,6 C 12,9 C 53 % 1008,1 hPa 0,0 l/m 2 min 0 min 0,8 UV-I 464 W/m 12,9 km/h (3 Bft)
05.03.2013 14:32 14,7 C 12,9 C 51 % 1008,1 hPa 0,0 l/m 2 min 0 min 0,8 UV-I 462 W/m 15,4 km/h (3 Bft)
05.03.2013 14:34 14,7 C 12,9 C 51 % 1008,1 hPa 0,0 l/m 2 min 0 min 0,8 UV-I 461 W/m 15,4 km/h (3 Bft)
05.03.2013 14:36 14,7 C 12,9 C 51 % 1008,0 hPa 0,0 l/m 2 min 0 min 0,8 UV-I 457 W/m 10,3 km/h (2 Bft)
05.03.2013 14:38 14,8 C 12,9 C 51 % 1008,1 hPa 0,0 l/m 2 min 0 min 0,8 UV-I 454 W/m 18,0 km/h (3 Bft)
05.03.2013 14:40 14,8 C 12,9 C 50 % 1008,0 hPa 0,0 l/m 2 min 0 min 0,8 UV-I 450 W/m 20,6 km/h (4 Bft)
05.03.2013 14:42 14,8 C 12,9 C 50 % 1008,1 hPa 0,0 l/m 2 min 0 min 0,7 UV-I 450 W/m 25,7 km/h (4 Bft)
05.03.2013 14:44 14,8 C 12,9 C 51 % 1008,0 hPa 0,0 l/m 2 min 0 min 0,7 UV-I 445 W/m 12,9 km/h (3 Bft)
05.03.2013 14:46 14,8 C 12,9 C 51 % 1008,0 hPa 0,0 l/m 2 min 0 min 0,7 UV-I 443 W/m 7,7 km/h (2 Bft)
05.03.2013 14:48 14,9 C 12,9 C 52 % 1008,0 hPa 0,0 l/m 2 min 0 min 0,7 UV-I 439 W/m 12,9 km/h (3 Bft)
05.03.2013 14:50 15,0 C 12,9 C 51 % 1008,0 hPa 0,0 l/m 2 min 0 min 0,7 UV-I 438 W/m 18,0 km/h (3 Bft)
05.03.2013 14:52 15,0 C 12,9 C 50 % 1007,9 hPa 0,0 l/m 2 min 0 min 0,7 UV-I 434 W/m 10,3 km/h (2 Bft)
05.03.2013 14:54 15,0 C 12,9 C 50 % 1007,9 hPa 0,0 l/m 2 min 0 min 0,6 UV-I 431 W/m 20,6 km/h (4 Bft)
05.03.2013 14:56 15,0 C 12,9 C 51 % 1007,9 hPa 0,0 l/m 2 min 0 min 0,6 UV-I 429 W/m 20,6 km/h (4 Bft)
05.03.2013 14:58 15,0 C 12,9 C 50 % 1007,8 hPa 0,0 l/m 2 min 0 min 0,6 UV-I 425 W/m 12,9 km/h (3 Bft)
05.03.2013 15:00 15,0 C 12,9 C 50 % 1007,8 hPa 0,0 l/m 2 min 0 min 0,6 UV-I 422 W/m 18,0 km/h (3 Bft)
05.03.2013 15:02 15,0 C 13,4 C 50 % 1007,7 hPa 0,0 l/m 2 min 0 min 0,6 UV-I 420 W/m 15,4 km/h (3 Bft)
05.03.2013 15:06 15,0 C 13,4 C 50 % 1007,7 hPa 0,0 l/m 2 min 0 min 0,5 UV-I 411 W/m 18,0 km/h (3 Bft)
05.03.2013 15:08 15,0 C 13,4 C 51 % 1007,8 hPa 0,0 l/m 2 min 0 min 0,5 UV-I 408 W/m 18,0 km/h (3 Bft)
05.03.2013 15:10 15,0 C 13,4 C 50 % 1007,8 hPa 0,0 l/m 2 min 0 min 0,5 UV-I 404 W/m 15,4 km/h (3 Bft)
05.03.2013 15:12 15,0 C 13,4 C 51 % 1007,7 hPa 0,0 l/m 2 min 0 min 0,5 UV-I 399 W/m 5,1 km/h (1 Bft)
05.03.2013 15:14 15,0 C 13,4 C 50 % 1007,6 hPa 0,0 l/m 2 min 0 min 0,0 UV-I 399 W/m 5,1 km/h (1 Bft)
05.03.2013 15:16 15,1 C 13,4 C 50 % 1007,7 hPa 0,0 l/m 2 min 0 min 0,0 UV-I 396 W/m 15,4 km/h (3 Bft)
05.03.2013 15:18 15,1 C 13,4 C 50 % 1007,7 hPa 0,0 l/m 2 min 0 min 0,0 UV-I 390 W/m 12,9 km/h (3 Bft)
05.03.2013 15:20 15,2 C 13,4 C 50 % 1007,7 hPa 0,0 l/m 2 min 0 min 0,0 UV-I 388 W/m 12,9 km/h (3 Bft)
05.03.2013 15:22 15,2 C 13,4 C 51 % 1007,7 hPa 0,0 l/m 2 min 0 min 0,0 UV-I 385 W/m 18,0 km/h (3 Bft)
05.03.2013 15:24 15,3 C 13,4 C 50 % 1007,7 hPa 0,0 l/m 2 min 0 min 0,0 UV-I 380 W/m 10,3 km/h (2 Bft)
05.03.2013 15:26 15,3 C 13,4 C 50 % 1007,6 hPa 0,0 l/m 2 min 0 min 0,0 UV-I 376 W/m 7,7 km/h (2 Bft)
05.03.2013 15:28 15,4 C 13,4 C 49 % 1007,6 hPa 0,0 l/m 2 min 0 min 0,0 UV-I 373 W/m 12,9 km/h (3 Bft)
05.03.2013 15:30 15,4 C 13,4 C 49 % 1007,6 hPa 0,0 l/m 2 min 0 min 0,0 UV-I 371 W/m 12,9 km/h (3 Bft)
05.03.2013 15:32 15,4 C 13,4 C 49 % 1007,6 hPa 0,0 l/m 2 min 0 min 0,0 UV-I 366 W/m 15,4 km/h (3 Bft)
05.03.2013 15:34 15,4 C 13,4 C 49 % 1007,5 hPa 0,0 l/m 2 min 0 min 0,0 UV-I 364 W/m 15,4 km/h (3 Bft)
05.03.2013 15:36 15,4 C 13,4 C 49 % 1007,5 hPa 0,0 l/m 2 min 0 min 0,0 UV-I 360 W/m 7,7 km/h (2 Bft)
05.03.2013 15:38 15,4 C 13,4 C 48 % 1007,5 hPa 0,0 l/m 2 min 0 min 0,0 UV-I 357 W/m 18,0 km/h (3 Bft)
05.03.2013 15:40 15,4 C 13,4 C 47 % 1007,5 hPa 0,0 l/m 2 min 0 min 0,0 UV-I 352 W/m 12,9 km/h (3 Bft)
05.03.2013 15:42 15,4 C 13,4 C 47 % 1007,5 hPa 0,0 l/m 2 min 0 min 0,0 UV-I 346 W/m 15,4 km/h (3 Bft)
05.03.2013 15:44 15,4 C 13,4 C 48 % 1007,5 hPa 0,0 l/m 2 min 0 min 0,0 UV-I 345 W/m 12,9 km/h (3 Bft)
05.03.2013 15:46 15,4 C 13,4 C 48 % 1007,5 hPa 0,0 l/m 2 min 0 min 0,0 UV-I 341 W/m 12,9 km/h (3 Bft)
05.03.2013 15:48 15,4 C 13,4 C 48 % 1007,4 hPa 0,0 l/m 2 min 0 min 0,0 UV-I 336 W/m 15,4 km/h (3 Bft)
05.03.2013 15:50 15,3 C 13,4 C 48 % 1007,3 hPa 0,0 l/m 2 min 0 min 0,0 UV-I 338 W/m 15,4 km/h (3 Bft)
05.03.2013 15:52 15,3 C 14,0 C 48 % 1007,2 hPa 0,0 l/m 2 min 0 min 0,0 UV-I 346 W/m 10,3 km/h (2 Bft)
05.03.2013 15:54 15,3 C 14,6 C 48 % 1007,3 hPa 0,0 l/m 2 min 0 min 0,0 UV-I 350 W/m 15,4 km/h (3 Bft)
05.03.2013 15:56 15,3 C 14,0 C 48 % 1007,2 hPa 0,0 l/m 2 min 0 min 0,0 UV-I 345 W/m 12,9 km/h (3 Bft)
05.03.2013 15:58 15,3 C 14,0 C 48 % 1007,2 hPa 0,0 l/m 2 min 0 min 0,0 UV-I 345 W/m 15,4 km/h (3 Bft)
05.03.2013 16:00 15,3 C 14,0 C 48 % 1007,2 hPa 0,0 l/m 2 min 0 min 0,0 UV-I 336 W/m 12,9 km/h (3 Bft)
05.03.2013 16:02 15,3 C 14,0 C 48 % 1007,1 hPa 0,0 l/m 2 min 0 min 0,0 UV-I 330 W/m 15,4 km/h (3 Bft)
05.03.2013 16:04 15,3 C 13,4 C 47 % 1007,1 hPa 0,0 l/m 2 min 0 min 0,0 UV-I 327 W/m 12,9 km/h (3 Bft)
05.03.2013 16:06 15,3 C 13,4 C 47 % 1007,1 hPa 0,0 l/m 2 min 0 min 0,0 UV-I 322 W/m 12,9 km/h (3 Bft)
05.03.2013 16:08 15,3 C 13,4 C 47 % 1007,1 hPa 0,0 l/m 2 min 0 min 0,0 UV-I 316 W/m 12,9 km/h (3 Bft)
05.03.2013 16:10 15,3 C 13,4 C 47 % 1007,1 hPa 0,0 l/m 2 min 0 min 0,0 UV-I 306 W/m 20,6 km/h (4 Bft)
05.03.2013 16:12 15,3 C 13,4 C 47 % 1007,1 hPa 0,0 l/m 2 min 0 min 0,0 UV-I 283 W/m 12,9 km/h (3 Bft)
05.03.2013 16:14 15,3 C 13,4 C 47 % 1007,1 hPa 0,0 l/m 2 min 0 min 0,0 UV-I 279 W/m 20,6 km/h (4 Bft)
05.03.2013 16:16 15,3 C 13,4 C 47 % 1007,1 hPa 0,0 l/m 2 min 0 min 0,0 UV-I 276 W/m 20,6 km/h (4 Bft)
05.03.2013 16:18 15,3 C 12,9 C 47 % 1007,0 hPa 0,0 l/m 2 min 0 min 0,0 UV-I 271 W/m 18,0 km/h (3 Bft)
05.03.2013 16:20 15,3 C 12,9 C 47 % 1007,0 hPa 0,0 l/m 2 min 0 min 0,0 UV-I 265 W/m 12,9 km/h (3 Bft)
05.03.2013 16:22 15,3 C 12,9 C 48 % 1007,0 hPa 0,0 l/m 2 min 0 min 0,0 UV-I 260 W/m 15,4 km/h (3 Bft)
05.03.2013 16:24 15,3 C 12,9 C 48 % 1007,0 hPa 0,0 l/m 2 min 0 min 0,0 UV-I 255 W/m 10,3 km/h (2 Bft)
05.03.2013 16:26 15,3 C 12,9 C 48 % 1007,0 hPa 0,0 l/m 2 min 0 min 0,0 UV-I 250 W/m 7,7 km/h (2 Bft)
05.03.2013 16:28 15,2 C 12,9 C 47 % 1007,0 hPa 0,0 l/m 2 min 0 min 0,0 UV-I 250 W/m 18,0 km/h (3 Bft)
05.03.2013 16:30 15,2 C 12,9 C 47 % 1007,0 hPa 0,0 l/m 2 min 0 min 0,0 UV-I 246 W/m 12,9 km/h (3 Bft)
05.03.2013 16:32 15,2 C 12,9 C 48 % 1007,0 hPa 0,0 l/m 2 min 0 min 0,0 UV-I 174 W/m 12,9 km/h (3 Bft)
05.03.2013 16:34 15,2 C 12,3 C 48 % 1006,9 hPa 0,0 l/m 0 min 0 min 0,0 UV-I 77 W/m 10,3 km/h (2 Bft)
05.03.2013 16:36 15,1 C 12,3 C 48 % 1006,9 hPa 0,0 l/m 0 min 0 min 0,0 UV-I 72 W/m 12,9 km/h (3 Bft)
05.03.2013 16:38 15,1 C 12,3 C 47 % 1006,9 hPa 0,0 l/m 0 min 0 min 0,0 UV-I 67 W/m 12,9 km/h (3 Bft)
05.03.2013 16:40 15,0 C 12,3 C 47 % 1006,9 hPa 0,0 l/m 0 min 0 min 0,0 UV-I 114 W/m 12,9 km/h (3 Bft)
05.03.2013 16:42 15,0 C 12,3 C 47 % 1006,9 hPa 0,0 l/m 2 min 0 min 0,0 UV-I 174 W/m 12,9 km/h (3 Bft)
05.03.2013 16:44 15,0 C 12,3 C 46 % 1006,9 hPa 0,0 l/m 0 min 0 min 0,0 UV-I 86 W/m 20,6 km/h (4 Bft)
05.03.2013 16:46 15,0 C 12,3 C 46 % 1006,9 hPa 0,0 l/m 0 min 0 min 0,0 UV-I 116 W/m 18,0 km/h (3 Bft)
05.03.2013 16:48 15,0 C 11,8 C 46 % 1006,9 hPa 0,0 l/m 0 min 0 min 0,0 UV-I 113 W/m 15,4 km/h (3 Bft)
05.03.2013 16:50 14,8 C 11,8 C 47 % 1006,9 hPa 0,0 l/m 2 min 0 min 0,0 UV-I 134 W/m 18,0 km/h (3 Bft)
05.03.2013 16:52 14,8 C 11,8 C 47 % 1006,9 hPa 0,0 l/m 0 min 0 min 0,0 UV-I 118 W/m 7,7 km/h (2 Bft)
05.03.2013 16:54 14,7 C 11,2 C 48 % 1006,9 hPa 0,0 l/m 0 min 0 min 0,0 UV-I 88 W/m 15,4 km/h (3 Bft)
05.03.2013 16:56 14,6 C 11,2 C 48 % 1006,9 hPa 0,0 l/m 0 min 0 min 0,0 UV-I 63 W/m 10,3 km/h (2 Bft)
05.03.2013 16:58 14,6 C 11,2 C 47 % 1006,9 hPa 0,0 l/m 0 min 0 min 0,0 UV-I 67 W/m 20,6 km/h (4 Bft)
05.03.2013 17:00 14,5 C 11,2 C 48 % 1006,9 hPa 0,0 l/m 0 min 0 min 0,0 UV-I 53 W/m 12,9 km/h (3 Bft)
05.03.2013 17:02 14,4 C 11,2 C 48 % 1006,8 hPa 0,0 l/m 0 min 0 min 0,0 UV-I 39 W/m 18,0 km/h (3 Bft)
05.03.2013 17:04 14,3 C 11,2 C 48 % 1006,8 hPa 0,0 l/m 0 min 0 min 0,0 UV-I 32 W/m 12,9 km/h (3 Bft)
05.03.2013 17:06 14,2 C 10,7 C 48 % 1006,7 hPa 0,0 l/m 0 min 0 min 0,0 UV-I 30 W/m 15,4 km/h (3 Bft)
05.03.2013 17:08 14,1 C 10,7 C 48 % 1006,7 hPa 0,0 l/m 0 min 0 min 0,0 UV-I 28 W/m 12,9 km/h (3 Bft)
05.03.2013 17:10 14,0 C 10,7 C 49 % 1006,7 hPa 0,0 l/m 0 min 0 min 0,0 UV-I 26 W/m 10,3 km/h (2 Bft)
05.03.2013 17:12 13,9 C 10,1 C 49 % 1006,6 hPa 0,0 l/m 0 min 0 min 0,0 UV-I 26 W/m 10,3 km/h (2 Bft)
05.03.2013 17:14 13,8 C 10,1 C 50 % 1006,6 hPa 0,0 l/m 0 min 0 min 0,0 UV-I 26 W/m 10,3 km/h (2 Bft)
05.03.2013 17:16 13,8 C 10,1 C 50 % 1006,6 hPa 0,0 l/m 0 min 0 min 0,0 UV-I 25 W/m 5,1 km/h (1 Bft)
05.03.2013 17:18 13,7 C 10,1 C 50 % 1006,6 hPa 0,0 l/m 0 min 0 min 0,0 UV-I 25 W/m 18,0 km/h (3 Bft)
05.03.2013 17:20 13,6 C 10,1 C 50 % 1006,6 hPa 0,0 l/m 0 min 0 min 0,0 UV-I 25 W/m 10,3 km/h (2 Bft)
05.03.2013 17:22 13,5 C 10,1 C 50 % 1006,6 hPa 0,0 l/m 0 min 0 min 0,0 UV-I 25 W/m 18,0 km/h (3 Bft)
05.03.2013 17:24 13,4 C 10,1 C 51 % 1006,6 hPa 0,0 l/m 0 min 0 min 0,0 UV-I 25 W/m 10,3 km/h (2 Bft)
05.03.2013 17:26 13,3 C 10,1 C 51 % 1006,6 hPa 0,0 l/m 0 min 0 min 0,0 UV-I 25 W/m 12,9 km/h (3 Bft)
05.03.2013 17:28 13,3 C 10,1 C 51 % 1006,6 hPa 0,0 l/m 0 min 0 min 0,0 UV-I 25 W/m 0,0 km/h (0 Bft)
05.03.2013 17:30 13,2 C 9,6 C 52 % 1006,6 hPa 0,0 l/m 0 min 0 min 0,0 UV-I 25 W/m 7,7 km/h (2 Bft)
05.03.2013 17:32 13,2 C 9,6 C 52 % 1006,5 hPa 0,0 l/m 0 min 0 min 0,0 UV-I 25 W/m 7,7 km/h (2 Bft)
05.03.2013 17:34 13,1 C 9,6 C 52 % 1006,6 hPa 0,0 l/m 0 min 0 min 0,0 UV-I 25 W/m 7,7 km/h (2 Bft)
05.03.2013 17:36 13,1 C 9,6 C 52 % 1006,6 hPa 0,0 l/m 0 min 0 min 0,0 UV-I 25 W/m 7,7 km/h (2 Bft)
05.03.2013 17:38 13,0 C 9,0 C 52 % 1006,5 hPa 0,0 l/m 0 min 0 min 0,0 UV-I 25 W/m 7,7 km/h (2 Bft)
05.03.2013 17:40 12,9 C 9,0 C 52 % 1006,5 hPa 0,0 l/m 0 min 0 min 0,0 UV-I 23 W/m 2,6 km/h (1 Bft)
05.03.2013 17:42 12,9 C 9,0 C 53 % 1006,5 hPa 0,0 l/m 0 min 0 min 0,0 UV-I 23 W/m 7,7 km/h (2 Bft)
05.03.2013 17:44 12,8 C 9,0 C 53 % 1006,5 hPa 0,0 l/m 0 min 0 min 0,0 UV-I 21 W/m 0,0 km/h (0 Bft)
05.03.2013 17:46 12,8 C 8,4 C 53 % 1006,4 hPa 0,0 l/m 0 min 0 min 0,0 UV-I 21 W/m 0,0 km/h (0 Bft)
05.03.2013 17:48 12,7 C 8,4 C 53 % 1006,4 hPa 0,0 l/m 0 min 0 min 0,0 UV-I 19 W/m 0,0 km/h (0 Bft)
05.03.2013 17:50 12,6 C 8,4 C 53 % 1006,5 hPa 0,0 l/m 0 min 0 min 0,0 UV-I 19 W/m 2,6 km/h (1 Bft)
05.03.2013 17:52 12,6 C 8,4 C 54 % 1006,5 hPa 0,0 l/m 0 min 0 min 0,0 UV-I 18 W/m 2,6 km/h (1 Bft)
05.03.2013 17:54 12,5 C 8,4 C 54 % 1006,5 hPa 0,0 l/m 0 min 0 min 0,0 UV-I 18 W/m 0,0 km/h (0 Bft)
05.03.2013 17:56 12,4 C 8,4 C 54 % 1006,3 hPa 0,0 l/m 0 min 0 min 0,0 UV-I 16 W/m 0,0 km/h (0 Bft)
05.03.2013 17:58 12,4 C 8,4 C 55 % 1006,3 hPa 0,0 l/m 0 min 0 min 0,0 UV-I 16 W/m 7,7 km/h (2 Bft)
05.03.2013 18:00 12,3 C 8,4 C 55 % 1006,3 hPa 0,0 l/m 0 min 0 min 0,0 UV-I 14 W/m 0,0 km/h (0 Bft)
05.03.2013 18:02 12,2 C 8,4 C 55 % 1006,3 hPa 0,0 l/m 0 min 0 min 0,0 UV-I 12 W/m 0,0 km/h (0 Bft)
05.03.2013 18:06 12,1 C 8,4 C 56 % 1006,2 hPa 0,0 l/m 0 min 0 min 0,0 UV-I 11 W/m 12,9 km/h (3 Bft)
05.03.2013 18:08 12,1 C 7,9 C 56 % 1006,4 hPa 0,0 l/m 0 min 0 min 0,0 UV-I 9 W/m 0,0 km/h (0 Bft)
05.03.2013 18:10 12,0 C 7,9 C 56 % 1006,2 hPa 0,0 l/m 0 min 0 min 0,0 UV-I 9 W/m 7,7 km/h (2 Bft)
05.03.2013 18:12 11,9 C 7,9 C 56 % 1006,2 hPa 0,0 l/m 0 min 0 min 0,0 UV-I 7 W/m 7,7 km/h (2 Bft)
05.03.2013 18:14 11,9 C 7,9 C 56 % 1006,2 hPa 0,0 l/m 0 min 0 min 0,0 UV-I 5 W/m 0,0 km/h (0 Bft)
05.03.2013 18:16 11,8 C 7,9 C 56 % 1006,2 hPa 0,0 l/m 0 min 0 min 0,0 UV-I 5 W/m 5,1 km/h (1 Bft)
05.03.2013 18:18 11,8 C 7,9 C 56 % 1006,2 hPa 0,0 l/m 0 min 0 min 0,0 UV-I 0 W/m 7,7 km/h (2 Bft)
05.03.2013 18:20 11,7 C 7,3 C 56 % 1006,2 hPa 0,0 l/m 0 min 0 min 0,0 UV-I 0 W/m 10,3 km/h (2 Bft)
05.03.2013 18:22 11,7 C 7,3 C 56 % 1006,2 hPa 0,0 l/m 0 min 0 min 0,0 UV-I 0 W/m 10,3 km/h (2 Bft)
05.03.2013 18:24 11,6 C 7,9 C 56 % 1006,3 hPa 0,0 l/m 0 min 0 min 0,0 UV-I 0 W/m 10,3 km/h (2 Bft)
05.03.2013 18:26 11,6 C 7,9 C 57 % 1006,2 hPa 0,0 l/m 0 min 0 min 0,0 UV-I 0 W/m 5,1 km/h (1 Bft)
05.03.2013 18:28 11,6 C 7,9 C 57 % 1006,2 hPa 0,0 l/m 0 min 0 min 0,0 UV-I 0 W/m 5,1 km/h (1 Bft)
05.03.2013 18:30 11,5 C 7,9 C 57 % 1006,2 hPa 0,0 l/m 0 min 0 min 0,0 UV-I 0 W/m 7,7 km/h (2 Bft)
05.03.2013 18:32 11,4 C 7,9 C 57 % 1006,2 hPa 0,0 l/m 0 min 0 min 0,0 UV-I 0 W/m 10,3 km/h (2 Bft)
05.03.2013 18:34 11,4 C 7,9 C 57 % 1006,2 hPa 0,0 l/m 0 min 0 min 0,0 UV-I 0 W/m 2,6 km/h (1 Bft)
05.03.2013 18:36 11,3 C 7,9 C 57 % 1006,2 hPa 0,0 l/m 0 min 0 min 0,0 UV-I 0 W/m 2,6 km/h (1 Bft)
05.03.2013 18:38 11,3 C 7,3 C 57 % 1006,2 hPa 0,0 l/m 0 min 0 min 0,0 UV-I 0 W/m 2,6 km/h (1 Bft)
05.03.2013 18:40 11,2 C 7,3 C 57 % 1006,2 hPa 0,0 l/m 0 min 0 min 0,0 UV-I 0 W/m 5,1 km/h (1 Bft)
05.03.2013 18:42 11,2 C 7,9 C 58 % 1006,4 hPa 0,0 l/m 0 min 0 min 0,0 UV-I 0 W/m 2,6 km/h (1 Bft)
05.03.2013 18:44 11,2 C 7,3 C 58 % 1006,2 hPa 0,0 l/m 0 min 0 min 0,0 UV-I 0 W/m 10,3 km/h (2 Bft)
05.03.2013 18:46 11,1 C 7,3 C 57 % 1006,2 hPa 0,0 l/m 0 min 0 min 0,0 UV-I 0 W/m 12,9 km/h (3 Bft)
05.03.2013 18:48 11,1 C 7,9 C 57 % 1006,2 hPa 0,0 l/m 0 min 0 min 0,0 UV-I 0 W/m 10,3 km/h (2 Bft)
05.03.2013 18:50 11,1 C 7,3 C 58 % 1006,2 hPa 0,0 l/m 0 min 0 min 0,0 UV-I 0 W/m 7,7 km/h (2 Bft)
05.03.2013 18:52 11,0 C 7,9 C 58 % 1006,1 hPa 0,0 l/m 0 min 0 min 0,0 UV-I 0 W/m 7,7 km/h (2 Bft)
05.03.2013 18:54 10,9 C 7,9 C 58 % 1006,1 hPa 0,0 l/m 0 min 0 min 0,0 UV-I 0 W/m 7,7 km/h (2 Bft)
05.03.2013 18:56 10,9 C 7,9 C 58 % 1006,1 hPa 0,0 l/m 0 min 0 min 0,0 UV-I 0 W/m 7,7 km/h (2 Bft)
05.03.2013 18:58 10,9 C 7,9 C 58 % 1006,2 hPa 0,0 l/m 0 min 0 min 0,0 UV-I 0 W/m 7,7 km/h (2 Bft)
05.03.2013 19:00 10,9 C 7,9 C 58 % 1006,2 hPa 0,0 l/m 0 min 0 min 0,0 UV-I 0 W/m 7,7 km/h (2 Bft)
05.03.2013 19:02 10,8 C 7,9 C 58 % 1006,2 hPa 0,0 l/m 0 min 0 min 0,0 UV-I 0 W/m 10,3 km/h (2 Bft)
05.03.2013 19:04 10,8 C 7,3 C 58 % 1006,2 hPa 0,0 l/m 0 min 0 min 0,0 UV-I 0 W/m 7,7 km/h (2 Bft)
05.03.2013 19:06 10,8 C 7,3 C 58 % 1006,2 hPa 0,0 l/m 0 min 0 min 0,0 UV-I 0 W/m 7,7 km/h (2 Bft)
05.03.2013 19:08 10,8 C 7,3 C 58 % 1006,1 hPa 0,0 l/m 0 min 0 min 0,0 UV-I 0 W/m 0,0 km/h (0 Bft)
05.03.2013 19:10 10,8 C 7,3 C 58 % 1006,1 hPa 0,0 l/m 0 min 0 min 0,0 UV-I 0 W/m 2,6 km/h (1 Bft)
05.03.2013 19:12 10,7 C 6,8 C 58 % 1006,1 hPa 0,0 l/m 0 min 0 min 0,0 UV-I 0 W/m 0,0 km/h (0 Bft)
05.03.2013 19:14 10,7 C 6,8 C 58 % 1006,1 hPa 0,0 l/m 0 min 0 min 0,0 UV-I 0 W/m 7,7 km/h (2 Bft)
05.03.2013 19:16 10,7 C 6,8 C 58 % 1006,2 hPa 0,0 l/m 0 min 0 min 0,0 UV-I 0 W/m 0,0 km/h (0 Bft)
05.03.2013 19:18 10,7 C 6,8 C 59 % 1006,2 hPa 0,0 l/m 0 min 0 min 0,0 UV-I 0 W/m 0,0 km/h (0 Bft)
05.03.2013 19:20 10,6 C 6,8 C 59 % 1006,1 hPa 0,0 l/m 0 min 0 min 0,0 UV-I 0 W/m 2,6 km/h (1 Bft)
05.03.2013 19:22 10,6 C 6,8 C 59 % 1006,1 hPa 0,0 l/m 0 min 0 min 0,0 UV-I 0 W/m 0,0 km/h (0 Bft)
05.03.2013 19:24 10,6 C 6,8 C 59 % 1006,1 hPa 0,0 l/m 0 min 0 min 0,0 UV-I 0 W/m 0,0 km/h (0 Bft)
05.03.2013 19:26 10,5 C 6,8 C 59 % 1006,1 hPa 0,0 l/m 0 min 0 min 0,0 UV-I 0 W/m 0,0 km/h (0 Bft)
05.03.2013 19:28 10,4 C 6,2 C 59 % 1006,1 hPa 0,0 l/m 0 min 0 min 0,0 UV-I 0 W/m 0,0 km/h (0 Bft)
05.03.2013 19:30 10,4 C 6,8 C 59 % 1006,1 hPa 0,0 l/m 0 min 0 min 0,0 UV-I 0 W/m 7,7 km/h (2 Bft)
05.03.2013 19:32 10,4 C 6,8 C 59 % 1006,2 hPa 0,0 l/m 0 min 0 min 0,0 UV-I 0 W/m 10,3 km/h (2 Bft)
05.03.2013 19:34 10,3 C 6,8 C 59 % 1006,2 hPa 0,0 l/m 0 min 0 min 0,0 UV-I 0 W/m 7,7 km/h (2 Bft)
05.03.2013 19:36 10,3 C 6,8 C 59 % 1006,1 hPa 0,0 l/m 0 min 0 min 0,0 UV-I 0 W/m 10,3 km/h (2 Bft)
05.03.2013 19:38 10,3 C 6,8 C 59 % 1006,1 hPa 0,0 l/m 0 min 0 min 0,0 UV-I 0 W/m 7,7 km/h (2 Bft)
05.03.2013 19:40 10,3 C 7,3 C 59 % 1006,1 hPa 0,0 l/m 0 min 0 min 0,0 UV-I 0 W/m 7,7 km/h (2 Bft)
05.03.2013 19:42 10,2 C 7,3 C 59 % 1006,1 hPa 0,0 l/m 0 min 0 min 0,0 UV-I 0 W/m 7,7 km/h (2 Bft)
05.03.2013 19:44 10,2 C 7,3 C 60 % 1006,2 hPa 0,0 l/m 0 min 0 min 0,0 UV-I 0 W/m 7,7 km/h (2 Bft)
05.03.2013 19:46 10,2 C 7,3 C 59 % 1006,1 hPa 0,0 l/m 0 min 0 min 0,0 UV-I 0 W/m 10,3 km/h (2 Bft)
05.03.2013 19:48 10,2 C 7,3 C 60 % 1006,1 hPa 0,0 l/m 0 min 0 min 0,0 UV-I 0 W/m 10,3 km/h (2 Bft)
05.03.2013 19:50 10,2 C 6,8 C 60 % 1006,2 hPa 0,0 l/m 0 min 0 min 0,0 UV-I 0 W/m 5,1 km/h (1 Bft)
05.03.2013 19:52 10,1 C 6,8 C 60 % 1006,2 hPa 0,0 l/m 0 min 0 min 0,0 UV-I 0 W/m 10,3 km/h (2 Bft)
05.03.2013 19:54 10,1 C 6,8 C 60 % 1006,1 hPa 0,0 l/m 0 min 0 min 0,0 UV-I 0 W/m 2,6 km/h (1 Bft)
05.03.2013 19:56 10,1 C 6,8 C 60 % 1006,1 hPa 0,0 l/m 0 min 0 min 0,0 UV-I 0 W/m 5,1 km/h (1 Bft)
05.03.2013 19:58 10,1 C 6,8 C 60 % 1006,2 hPa 0,0 l/m 0 min 0 min 0,0 UV-I 0 W/m 7,7 km/h (2 Bft)
05.03.2013 20:00 10,1 C 6,8 C 60 % 1006,2 hPa 0,0 l/m 0 min 0 min 0,0 UV-I 0 W/m 7,7 km/h (2 Bft)
05.03.2013 20:02 10,0 C 6,8 C 60 % 1006,1 hPa 0,0 l/m 0 min 0 min 0,0 UV-I 0 W/m 2,6 km/h (1 Bft)
05.03.2013 20:04 9,9 C 6,8 C 60 % 1006,2 hPa 0,0 l/m 0 min 0 min 0,0 UV-I 0 W/m 7,7 km/h (2 Bft)
05.03.2013 20:06 9,9 C 6,8 C 60 % 1006,2 hPa 0,0 l/m 0 min 0 min 0,0 UV-I 0 W/m 0,0 km/h (0 Bft)
05.03.2013 20:08 9,9 C 6,2 C 60 % 1006,2 hPa 0,0 l/m 0 min 0 min 0,0 UV-I 0 W/m 5,1 km/h (1 Bft)
05.03.2013 20:10 9,9 C 6,2 C 61 % 1006,2 hPa 0,0 l/m 0 min 0 min 0,0 UV-I 0 W/m 0,0 km/h (0 Bft)
05.03.2013 20:12 9,8 C 6,2 C 61 % 1006,1 hPa 0,0 l/m 0 min 0 min 0,0 UV-I 0 W/m 0,0 km/h (0 Bft)
05.03.2013 20:14 9,8 C 6,2 C 61 % 1006,1 hPa 0,0 l/m 0 min 0 min 0,0 UV-I 0 W/m 0,0 km/h (0 Bft)
05.03.2013 20:16 9,8 C 6,2 C 61 % 1006,1 hPa 0,0 l/m 0 min 0 min 0,0 UV-I 0 W/m 2,6 km/h (1 Bft)
05.03.2013 20:18 9,7 C 5,7 C 61 % 1006,1 hPa 0,0 l/m 0 min 0 min 0,0 UV-I 0 W/m 0,0 km/h (0 Bft)
05.03.2013 20:20 9,7 C 5,7 C 61 % 1006,2 hPa 0,0 l/m 0 min 0 min 0,0 UV-I 0 W/m 0,0 km/h (0 Bft)
05.03.2013 20:22 9,7 C 5,7 C 61 % 1006,2 hPa 0,0 l/m 0 min 0 min 0,0 UV-I 0 W/m 0,0 km/h (0 Bft)
05.03.2013 20:24 9,6 C 5,7 C 61 % 1006,2 hPa 0,0 l/m 0 min 0 min 0,0 UV-I 0 W/m 7,7 km/h (2 Bft)
05.03.2013 20:26 9,6 C 5,7 C 61 % 1006,2 hPa 0,0 l/m 0 min 0 min 0,0 UV-I 0 W/m 2,6 km/h (1 Bft)
05.03.2013 20:28 9,6 C 5,7 C 61 % 1006,2 hPa 0,0 l/m 0 min 0 min 0,0 UV-I 0 W/m 7,7 km/h (2 Bft)
05.03.2013 20:30 9,6 C 5,7 C 61 % 1006,2 hPa 0,0 l/m 0 min 0 min 0,0 UV-I 0 W/m 10,3 km/h (2 Bft)
05.03.2013 20:32 9,5 C 6,2 C 61 % 1006,2 hPa 0,0 l/m 0 min 0 min 0,0 UV-I 0 W/m 2,6 km/h (1 Bft)
05.03.2013 20:34 9,4 C 6,2 C 61 % 1006,2 hPa 0,0 l/m 0 min 0 min 0,0 UV-I 0 W/m 5,1 km/h (1 Bft)
05.03.2013 20:36 9,4 C 6,2 C 62 % 1006,2 hPa 0,0 l/m 0 min 0 min 0,0 UV-I 0 W/m 7,7 km/h (2 Bft)
05.03.2013 20:38 9,4 C 5,7 C 62 % 1006,2 hPa 0,0 l/m 0 min 0 min 0,0 UV-I 0 W/m 2,6 km/h (1 Bft)
05.03.2013 20:40 9,4 C 6,2 C 62 % 1006,1 hPa 0,0 l/m 0 min 0 min 0,0 UV-I 0 W/m 0,0 km/h (0 Bft)
05.03.2013 20:42 9,3 C 5,7 C 62 % 1006,2 hPa 0,0 l/m 0 min 0 min 0,0 UV-I 0 W/m 7,7 km/h (2 Bft)
05.03.2013 20:44 9,3 C 5,7 C 62 % 1006,1 hPa 0,0 l/m 0 min 0 min 0,0 UV-I 0 W/m 2,6 km/h (1 Bft)
05.03.2013 20:46 9,3 C 5,7 C 62 % 1006,1 hPa 0,0 l/m 0 min 0 min 0,0 UV-I 0 W/m 0,0 km/h (0 Bft)
05.03.2013 20:48 9,3 C 5,7 C 62 % 1006,1 hPa 0,0 l/m 0 min 0 min 0,0 UV-I 0 W/m 7,7 km/h (2 Bft)
05.03.2013 20:50 9,2 C 5,7 C 62 % 1006,1 hPa 0,0 l/m 0 min 0 min 0,0 UV-I 0 W/m 5,1 km/h (1 Bft)
05.03.2013 20:52 9,2 C 5,7 C 62 % 1006,1 hPa 0,0 l/m 0 min 0 min 0,0 UV-I 0 W/m 5,1 km/h (1 Bft)
05.03.2013 20:54 9,2 C 5,7 C 62 % 1006,1 hPa 0,0 l/m 0 min 0 min 0,0 UV-I 0 W/m 2,6 km/h (1 Bft)
05.03.2013 20:56 9,1 C 5,7 C 62 % 1006,1 hPa 0,0 l/m 0 min 0 min 0,0 UV-I 0 W/m 0,0 km/h (0 Bft)
05.03.2013 20:58 9,1 C 5,7 C 62 % 1006,1 hPa 0,0 l/m 0 min 0 min 0,0 UV-I 0 W/m 0,0 km/h (0 Bft)
05.03.2013 21:00 9,1 C 5,7 C 62 % 1006,2 hPa 0,0 l/m 0 min 0 min 0,0 UV-I 0 W/m 0,0 km/h (0 Bft)
05.03.2013 21:02 9,1 C 5,1 C 62 % 1006,2 hPa 0,0 l/m 0 min 0 min 0,0 UV-I 0 W/m 0,0 km/h (0 Bft)
05.03.2013 21:06 9,0 C 5,1 C 62 % 1006,2 hPa 0,0 l/m 0 min 0 min 0,0 UV-I 0 W/m 0,0 km/h (0 Bft)
05.03.2013 21:08 8,9 C 5,1 C 63 % 1006,2 hPa 0,0 l/m 0 min 0 min 0,0 UV-I 0 W/m 0,0 km/h (0 Bft)
05.03.2013 21:10 8,9 C 5,1 C 63 % 1006,2 hPa 0,0 l/m 0 min 0 min 0,0 UV-I 0 W/m 7,7 km/h (2 Bft)
05.03.2013 21:12 8,9 C 5,7 C 63 % 1006,2 hPa 0,0 l/m 0 min 0 min 0,0 UV-I 0 W/m 2,6 km/h (1 Bft)
05.03.2013 21:14 8,8 C 5,7 C 63 % 1006,1 hPa 0,0 l/m 0 min 0 min 0,0 UV-I 0 W/m 10,3 km/h (2 Bft)
05.03.2013 21:16 8,8 C 5,7 C 63 % 1006,1 hPa 0,0 l/m 0 min 0 min 0,0 UV-I 0 W/m 7,7 km/h (2 Bft)
05.03.2013 21:18 8,8 C 5,7 C 63 % 1006,2 hPa 0,0 l/m 0 min 0 min 0,0 UV-I 0 W/m 7,7 km/h (2 Bft)
05.03.2013 21:20 8,8 C 5,7 C 63 % 1006,2 hPa 0,0 l/m 0 min 0 min 0,0 UV-I 0 W/m 7,7 km/h (2 Bft)
05.03.2013 21:22 8,7 C 5,7 C 64 % 1006,2 hPa 0,0 l/m 0 min 0 min 0,0 UV-I 0 W/m 7,7 km/h (2 Bft)
05.03.2013 21:24 8,7 C 5,1 C 64 % 1006,2 hPa 0,0 l/m 0 min 0 min 0,0 UV-I 0 W/m 7,7 km/h (2 Bft)
05.03.2013 21:26 8,7 C 5,1 C 64 % 1006,2 hPa 0,0 l/m 0 min 0 min 0,0 UV-I 0 W/m 2,6 km/h (1 Bft)
05.03.2013 21:28 8,7 C 5,1 C 64 % 1006,2 hPa 0,0 l/m 0 min 0 min 0,0 UV-I 0 W/m 10,3 km/h (2 Bft)
05.03.2013 21:30 8,6 C 5,1 C 64 % 1006,2 hPa 0,0 l/m 0 min 0 min 0,0 UV-I 0 W/m 7,7 km/h (2 Bft)
05.03.2013 21:32 8,6 C 5,1 C 64 % 1006,2 hPa 0,0 l/m 0 min 0 min 0,0 UV-I 0 W/m 10,3 km/h (2 Bft)
05.03.2013 21:34 8,6 C 5,1 C 64 % 1006,2 hPa 0,0 l/m 0 min 0 min 0,0 UV-I 0 W/m 0,0 km/h (0 Bft)
05.03.2013 21:36 8,5 C 5,1 C 65 % 1006,2 hPa 0,0 l/m 0 min 0 min 0,0 UV-I 0 W/m 0,0 km/h (0 Bft)
05.03.2013 21:38 8,5 C 5,1 C 65 % 1006,3 hPa 0,0 l/m 0 min 0 min 0,0 UV-I 0 W/m 7,7 km/h (2 Bft)
05.03.2013 21:40 8,4 C 5,1 C 65 % 1006,3 hPa 0,0 l/m 0 min 0 min 0,0 UV-I 0 W/m 0,0 km/h (0 Bft)
05.03.2013 21:42 8,4 C 5,1 C 65 % 1006,3 hPa 0,0 l/m 0 min 0 min 0,0 UV-I 0 W/m 0,0 km/h (0 Bft)
05.03.2013 21:44 8,4 C 5,1 C 65 % 1006,3 hPa 0,0 l/m 0 min 0 min 0,0 UV-I 0 W/m 2,6 km/h (1 Bft)
05.03.2013 21:46 8,4 C 5,1 C 65 % 1006,3 hPa 0,0 l/m 0 min 0 min 0,0 UV-I 0 W/m 0,0 km/h (0 Bft)
05.03.2013 21:48 8,3 C 5,1 C 65 % 1006,3 hPa 0,0 l/m 0 min 0 min 0,0 UV-I 0 W/m 2,6 km/h (1 Bft)
05.03.2013 21:50 8,3 C 4,6 C 65 % 1006,3 hPa 0,0 l/m 0 min 0 min 0,0 UV-I 0 W/m 0,0 km/h (0 Bft)
05.03.2013 21:52 8,3 C 4,6 C 65 % 1006,3 hPa 0,0 l/m 0 min 0 min 0,0 UV-I 0 W/m 0,0 km/h (0 Bft)
05.03.2013 21:54 8,2 C 4,6 C 66 % 1006,3 hPa 0,0 l/m 0 min 0 min 0,0 UV-I 0 W/m 0,0 km/h (0 Bft)
05.03.2013 21:56 8,2 C 4,6 C 66 % 1006,4 hPa 0,0 l/m 0 min 0 min 0,0 UV-I 0 W/m 0,0 km/h (0 Bft)
05.03.2013 21:58 8,2 C 4,6 C 66 % 1006,3 hPa 0,0 l/m 0 min 0 min 0,0 UV-I 0 W/m 10,3 km/h (2 Bft)
05.03.2013 22:00 8,2 C 4,6 C 66 % 1006,4 hPa 0,0 l/m 0 min 0 min 0,0 UV-I 0 W/m 5,1 km/h (1 Bft)
05.03.2013 22:02 8,1 C 4,6 C 66 % 1006,4 hPa 0,0 l/m 0 min 0 min 0,0 UV-I 0 W/m 7,7 km/h (2 Bft)
05.03.2013 22:04 8,1 C 4,6 C 66 % 1006,3 hPa 0,0 l/m 0 min 0 min 0,0 UV-I 0 W/m 0,0 km/h (0 Bft)
05.03.2013 22:06 8,1 C 4,6 C 67 % 1006,4 hPa 0,0 l/m 0 min 0 min 0,0 UV-I 0 W/m 0,0 km/h (0 Bft)
05.03.2013 22:08 8,1 C 4,6 C 67 % 1006,4 hPa 0,0 l/m 0 min 0 min 0,0 UV-I 0 W/m 0,0 km/h (0 Bft)
05.03.2013 22:10 8,0 C 4,6 C 67 % 1006,4 hPa 0,0 l/m 0 min 0 min 0,0 UV-I 0 W/m 0,0 km/h (0 Bft)
05.03.2013 22:12 8,0 C 4,6 C 67 % 1006,4 hPa 0,0 l/m 0 min 0 min 0,0 UV-I 0 W/m 0,0 km/h (0 Bft)
05.03.2013 22:14 7,9 C 4,6 C 67 % 1006,4 hPa 0,0 l/m 0 min 0 min 0,0 UV-I 0 W/m 0,0 km/h (0 Bft)
05.03.2013 22:16 7,9 C 4,0 C 67 % 1006,4 hPa 0,0 l/m 0 min 0 min 0,0 UV-I 0 W/m 0,0 km/h (0 Bft)
05.03.2013 22:18 7,9 C 4,0 C 67 % 1006,3 hPa 0,0 l/m 0 min 0 min 0,0 UV-I 0 W/m 0,0 km/h (0 Bft)
05.03.2013 22:20 7,9 C 4,0 C 67 % 1006,4 hPa 0,0 l/m 0 min 0 min 0,0 UV-I 0 W/m 0,0 km/h (0 Bft)
05.03.2013 22:22 7,8 C 4,0 C 67 % 1006,4 hPa 0,0 l/m 0 min 0 min 0,0 UV-I 0 W/m 0,0 km/h (0 Bft)
05.03.2013 22:24 7,8 C 4,0 C 67 % 1006,4 hPa 0,0 l/m 0 min 0 min 0,0 UV-I 0 W/m 0,0 km/h (0 Bft)
05.03.2013 22:26 7,8 C 4,0 C 68 % 1006,4 hPa 0,0 l/m 0 min 0 min 0,0 UV-I 0 W/m 0,0 km/h (0 Bft)
05.03.2013 22:28 7,8 C 4,0 C 68 % 1006,3 hPa 0,0 l/m 0 min 0 min 0,0 UV-I 0 W/m 0,0 km/h (0 Bft)
05.03.2013 22:30 7,7 C 4,0 C 68 % 1006,3 hPa 0,0 l/m 0 min 0 min 0,0 UV-I 0 W/m 0,0 km/h (0 Bft)
05.03.2013 22:32 7,7 C 4,0 C 68 % 1006,3 hPa 0,0 l/m 0 min 0 min 0,0 UV-I 0 W/m 0,0 km/h (0 Bft)
05.03.2013 22:34 7,7 C 4,0 C 68 % 1006,3 hPa 0,0 l/m 0 min 0 min 0,0 UV-I 0 W/m 0,0 km/h (0 Bft)
05.03.2013 22:36 7,6 C 4,0 C 68 % 1006,3 hPa 0,0 l/m 0 min 0 min 0,0 UV-I 0 W/m 5,1 km/h (1 Bft)
05.03.2013 22:38 7,6 C 4,0 C 69 % 1006,3 hPa 0,0 l/m 0 min 0 min 0,0 UV-I 0 W/m 5,1 km/h (1 Bft)
05.03.2013 22:40 7,6 C 4,0 C 69 % 1006,3 hPa 0,0 l/m 0 min 0 min 0,0 UV-I 0 W/m 2,6 km/h (1 Bft)
05.03.2013 22:42 7,5 C 4,0 C 69 % 1006,2 hPa 0,0 l/m 0 min 0 min 0,0 UV-I 0 W/m 0,0 km/h (0 Bft)
05.03.2013 22:44 7,4 C 4,6 C 69 % 1006,2 hPa 0,0 l/m 0 min 0 min 0,0 UV-I 0 W/m 2,6 km/h (1 Bft)
05.03.2013 22:46 7,4 C 4,6 C 69 % 1006,3 hPa 0,0 l/m 0 min 0 min 0,0 UV-I 0 W/m 2,6 km/h (1 Bft)
05.03.2013 22:48 7,4 C 4,6 C 70 % 1006,2 hPa 0,0 l/m 0 min 0 min 0,0 UV-I 0 W/m 2,6 km/h (1 Bft)
05.03.2013 22:50 7,3 C 4,6 C 70 % 1006,2 hPa 0,0 l/m 0 min 0 min 0,0 UV-I 0 W/m 2,6 km/h (1 Bft)
05.03.2013 22:52 7,3 C 4,6 C 70 % 1006,2 hPa 0,0 l/m 0 min 0 min 0,0 UV-I 0 W/m 5,1 km/h (1 Bft)
05.03.2013 22:54 7,3 C 4,6 C 70 % 1006,2 hPa 0,0 l/m 0 min 0 min 0,0 UV-I 0 W/m 7,7 km/h (2 Bft)
05.03.2013 22:56 7,3 C 4,6 C 70 % 1006,2 hPa 0,0 l/m 0 min 0 min 0,0 UV-I 0 W/m 2,6 km/h (1 Bft)
05.03.2013 22:58 7,3 C 4,6 C 70 % 1006,2 hPa 0,0 l/m 0 min 0 min 0,0 UV-I 0 W/m 0,0 km/h (0 Bft)
05.03.2013 23:00 7,3 C 4,6 C 70 % 1006,2 hPa 0,0 l/m 0 min 0 min 0,0 UV-I 0 W/m 2,6 km/h (1 Bft)
05.03.2013 23:02 7,2 C 4,0 C 70 % 1006,2 hPa 0,0 l/m 0 min 0 min 0,0 UV-I 0 W/m 0,0 km/h (0 Bft)
05.03.2013 23:04 7,2 C 4,0 C 70 % 1006,3 hPa 0,0 l/m 0 min 0 min 0,0 UV-I 0 W/m 0,0 km/h (0 Bft)
05.03.2013 23:06 7,2 C 4,0 C 70 % 1006,2 hPa 0,0 l/m 0 min 0 min 0,0 UV-I 0 W/m 2,6 km/h (1 Bft)
05.03.2013 23:08 7,2 C 4,0 C 71 % 1006,2 hPa 0,0 l/m 0 min 0 min 0,0 UV-I 0 W/m 2,6 km/h (1 Bft)
05.03.2013 23:10 7,2 C 4,0 C 71 % 1006,2 hPa 0,0 l/m 0 min 0 min 0,0 UV-I 0 W/m 0,0 km/h (0 Bft)
05.03.2013 23:12 7,2 C 4,0 C 71 % 1006,2 hPa 0,0 l/m 0 min 0 min 0,0 UV-I 0 W/m 5,1 km/h (1 Bft)
05.03.2013 23:14 7,2 C 4,0 C 71 % 1006,2 hPa 0,0 l/m 0 min 0 min 0,0 UV-I 0 W/m 7,7 km/h (2 Bft)
05.03.2013 23:16 7,2 C 4,6 C 71 % 1006,1 hPa 0,0 l/m 0 min 0 min 0,0 UV-I 0 W/m 7,7 km/h (2 Bft)
05.03.2013 23:18 7,2 C 4,6 C 71 % 1006,1 hPa 0,0 l/m 0 min 0 min 0,0 UV-I 0 W/m 10,3 km/h (2 Bft)
05.03.2013 23:20 7,2 C 4,6 C 71 % 1006,1 hPa 0,0 l/m 0 min 0 min 0,0 UV-I 0 W/m 7,7 km/h (2 Bft)
05.03.2013 23:22 7,2 C 4,6 C 71 % 1006,1 hPa 0,0 l/m 0 min 0 min 0,0 UV-I 0 W/m 10,3 km/h (2 Bft)
05.03.2013 23:24 7,2 C 4,6 C 71 % 1006,1 hPa 0,0 l/m 0 min 0 min 0,0 UV-I 0 W/m 5,1 km/h (1 Bft)
05.03.2013 23:26 7,2 C 4,6 C 71 % 1006,1 hPa 0,0 l/m 0 min 0 min 0,0 UV-I 0 W/m 10,3 km/h (2 Bft)
05.03.2013 23:28 7,2 C 4,6 C 71 % 1006,1 hPa 0,0 l/m 0 min 0 min 0,0 UV-I 0 W/m 10,3 km/h (2 Bft)
05.03.2013 23:30 7,2 C 4,6 C 71 % 1006,1 hPa 0,0 l/m 0 min 0 min 0,0 UV-I 0 W/m 7,7 km/h (2 Bft)
05.03.2013 23:32 7,2 C 4,6 C 71 % 1006,1 hPa 0,0 l/m 0 min 0 min 0,0 UV-I 0 W/m 10,3 km/h (2 Bft)
05.03.2013 23:34 7,2 C 4,6 C 71 % 1006,1 hPa 0,0 l/m 0 min 0 min 0,0 UV-I 0 W/m 7,7 km/h (2 Bft)
05.03.2013 23:36 7,2 C 4,6 C 71 % 1006,1 hPa 0,0 l/m 0 min 0 min 0,0 UV-I 0 W/m 10,3 km/h (2 Bft)
05.03.2013 23:38 7,2 C 4,6 C 71 % 1006,1 hPa 0,0 l/m 0 min 0 min 0,0 UV-I 0 W/m 10,3 km/h (2 Bft)
05.03.2013 23:40 7,2 C 5,1 C 71 % 1006,1 hPa 0,0 l/m 0 min 0 min 0,0 UV-I 0 W/m 7,7 km/h (2 Bft)
05.03.2013 23:42 7,2 C 5,1 C 71 % 1006,1 hPa 0,0 l/m 0 min 0 min 0,0 UV-I 0 W/m 5,1 km/h (1 Bft)
05.03.2013 23:44 7,1 C 5,1 C 72 % 1006,0 hPa 0,0 l/m 0 min 0 min 0,0 UV-I 0 W/m 10,3 km/h (2 Bft)
05.03.2013 23:46 7,1 C 5,1 C 72 % 1006,1 hPa 0,0 l/m 0 min 0 min 0,0 UV-I 0 W/m 12,9 km/h (3 Bft)
05.03.2013 23:48 7,1 C 5,1 C 72 % 1006,1 hPa 0,0 l/m 0 min 0 min 0,0 UV-I 0 W/m 5,1 km/h (1 Bft)
05.03.2013 23:50 7,1 C 5,1 C 72 % 1006,1 hPa 0,0 l/m 0 min 0 min 0,0 UV-I 0 W/m 10,3 km/h (2 Bft)
05.03.2013 23:52 7,1 C 5,1 C 72 % 1006,1 hPa 0,0 l/m 0 min 0 min 0,0 UV-I 0 W/m 5,1 km/h (1 Bft)
05.03.2013 23:54 7,1 C 5,1 C 72 % 1006,1 hPa 0,0 l/m 0 min 0 min 0,0 UV-I 0 W/m 5,1 km/h (1 Bft)
05.03.2013 23:56 7,1 C 5,1 C 72 % 1006,0 hPa 0,0 l/m 0 min 0 min 0,0 UV-I 0 W/m 10,3 km/h (2 Bft)
05.03.2013 23:58 7,1 C 5,1 C 72 % 1006,0 hPa 0,0 l/m 0 min 0 min 0,0 UV-I 0 W/m 2,6 km/h (1 Bft)
_ Min-Zeit 07:24 07:10 16:44 23:44 - - - - - 07:08
Minimum _ 2,7 C 0,7 C 46 % 1006,0 hPa - - - - - 0,0 km/h (0 Bft)
_ Max-Zeit 15:28 15:54 03:28 00:00 00:00 08:54 00:00 12:38 12:56 08:42
Maximum _ 15,4 C 14,6 C 80 % 1012,8 hPa 0,0 l/m 2 min 0 min 1,3 UV-I 524 W/m 38,6 km/h
SO (5 Bft)
Durchschnitt _ 8,2 C 6,0 C 64 % 1009,3 hPa #0,0 l/m #7:38 h #0 min. 1,0 UV-I 291 W/m 14,0 km/h (3 Bft)
© 2013 W. Hausmann